Wetterdaten: Samstag, 03.06.2023
Datum Zeit Temp. 2m Temp +5 cm Feuchte A. Luftdruck Regen Wind Richtung Richtung Sonnenschein UV Solar Taupunkt Windchill Windben
03.06.2023 00:00 10,8 C 8,9 C 75 % 1020,7 hPa 0,0 l/m 7,0 km/h (2 Bft) N-NO 28 0 min 0,0 UV-I 0 W/m 6,5 C 10,4 C 16,1 km/h (3 Bft)
03.06.2023 00:03 10,7 C 8,9 C 75 % 1020,8 hPa 0,0 l/m 4,6 km/h (1 Bft) NO 51 0 min 0,0 UV-I 0 W/m 6,5 C 10,7 C 8,0 km/h (2 Bft)
03.06.2023 00:06 10,6 C 8,3 C 76 % 1020,7 hPa 0,0 l/m 1,7 km/h (1 Bft) NO 51 0 min 0,0 UV-I 0 W/m 6,5 C 10,6 C 3,2 km/h (1 Bft)
03.06.2023 00:09 10,4 C 8,3 C 77 % 1020,9 hPa 0,0 l/m 2,1 km/h (1 Bft) NO 51 0 min 0,0 UV-I 0 W/m 6,5 C 10,4 C 6,4 km/h (2 Bft)
03.06.2023 00:12 10,4 C 7,8 C 77 % 1020,9 hPa 0,0 l/m 2,5 km/h (1 Bft) NO 51 0 min 0,0 UV-I 0 W/m 6,5 C 10,4 C 3,2 km/h (1 Bft)
03.06.2023 00:15 10,3 C 7,2 C 77 % 1020,9 hPa 0,0 l/m 1,5 km/h (1 Bft) NO 51 0 min 0,0 UV-I 0 W/m 6,4 C 10,3 C 3,2 km/h (1 Bft)
03.06.2023 00:18 10,1 C 7,2 C 77 % 1020,9 hPa 0,0 l/m 2,0 km/h (1 Bft) NO 51 0 min 0,0 UV-I 0 W/m 6,3 C 10,1 C 4,8 km/h (1 Bft)
03.06.2023 00:21 9,9 C 6,7 C 78 % 1020,9 hPa 0,0 l/m 2,8 km/h (1 Bft) NO 51 0 min 0,0 UV-I 0 W/m 6,2 C 9,9 C 6,4 km/h (2 Bft)
03.06.2023 00:24 9,7 C 6,7 C 78 % 1020,9 hPa 0,0 l/m 2,2 km/h (1 Bft) NO 51 0 min 0,0 UV-I 0 W/m 6,1 C 9,7 C 4,8 km/h (1 Bft)
03.06.2023 00:27 9,6 C 6,7 C 79 % 1020,9 hPa 0,0 l/m 2,4 km/h (1 Bft) NO 51 0 min 0,0 UV-I 0 W/m 6,1 C 9,6 C 4,8 km/h (1 Bft)
03.06.2023 00:30 9,4 C 6,7 C 80 % 1020,9 hPa 0,0 l/m 2,7 km/h (1 Bft) NO 51 0 min 0,0 UV-I 0 W/m 6,1 C 9,4 C 4,8 km/h (1 Bft)
03.06.2023 00:33 9,4 C 6,1 C 80 % 1020,9 hPa 0,0 l/m 2,2 km/h (1 Bft) NO 54 0 min 0,0 UV-I 0 W/m 6,1 C 9,4 C 4,8 km/h (1 Bft)
03.06.2023 00:36 9,4 C 6,7 C 80 % 1020,9 hPa 0,0 l/m 4,0 km/h (1 Bft) N 5 0 min 0,0 UV-I 0 W/m 6,1 C 9,4 C 14,5 km/h (3 Bft)
03.06.2023 00:39 9,2 C 6,7 C 80 % 1021,0 hPa 0,0 l/m 2,6 km/h (1 Bft) N 5 0 min 0,0 UV-I 0 W/m 5,9 C 9,2 C 4,8 km/h (1 Bft)
03.06.2023 00:42 9,0 C 6,1 C 81 % 1021,0 hPa 0,0 l/m 2,4 km/h (1 Bft) N 5 0 min 0,0 UV-I 0 W/m 5,9 C 9,0 C 4,8 km/h (1 Bft)
03.06.2023 00:45 8,9 C 6,1 C 81 % 1020,9 hPa 0,0 l/m 3,0 km/h (1 Bft) N 5 0 min 0,0 UV-I 0 W/m 5,8 C 8,9 C 4,8 km/h (1 Bft)
03.06.2023 00:48 8,9 C 6,1 C 82 % 1020,9 hPa 0,0 l/m 2,7 km/h (1 Bft) N 5 0 min 0,0 UV-I 0 W/m 6,0 C 8,9 C 4,8 km/h (1 Bft)
03.06.2023 00:51 8,8 C 6,1 C 82 % 1020,9 hPa 0,0 l/m 3,8 km/h (1 Bft) N 5 0 min 0,0 UV-I 0 W/m 5,9 C 8,8 C 4,8 km/h (1 Bft)
03.06.2023 00:54 8,8 C 6,1 C 82 % 1020,9 hPa 0,0 l/m 2,8 km/h (1 Bft) N 5 0 min 0,0 UV-I 0 W/m 5,9 C 8,8 C 4,8 km/h (1 Bft)
03.06.2023 00:57 8,8 C 6,1 C 82 % 1020,9 hPa 0,0 l/m 2,3 km/h (1 Bft) N 5 0 min 0,0 UV-I 0 W/m 5,9 C 8,8 C 3,2 km/h (1 Bft)
03.06.2023 01:00 8,8 C 6,1 C 82 % 1020,9 hPa 0,0 l/m 3,2 km/h (1 Bft) N 5 0 min 0,0 UV-I 0 W/m 5,9 C 8,8 C 4,8 km/h (1 Bft)
03.06.2023 01:03 8,8 C 5,6 C 83 % 1020,9 hPa 0,0 l/m 3,0 km/h (1 Bft) N 5 0 min 0,0 UV-I 0 W/m 6,1 C 8,8 C 4,8 km/h (1 Bft)
03.06.2023 01:06 8,9 C 6,1 C 83 % 1020,9 hPa 0,0 l/m 3,5 km/h (1 Bft) N-NO 15 0 min 0,0 UV-I 0 W/m 6,2 C 8,9 C 6,4 km/h (2 Bft)
03.06.2023 01:09 8,8 C 6,1 C 82 % 1021,0 hPa 0,0 l/m 2,4 km/h (1 Bft) N-NO 15 0 min 0,0 UV-I 0 W/m 5,9 C 8,8 C 3,2 km/h (1 Bft)
03.06.2023 01:12 8,8 C 6,1 C 82 % 1020,9 hPa 0,0 l/m 2,6 km/h (1 Bft) N-NO 15 0 min 0,0 UV-I 0 W/m 5,9 C 8,8 C 4,8 km/h (1 Bft)
03.06.2023 01:15 8,9 C 5,6 C 82 % 1021,0 hPa 0,0 l/m 2,8 km/h (1 Bft) N-NO 15 0 min 0,0 UV-I 0 W/m 6,0 C 8,9 C 4,8 km/h (1 Bft)
03.06.2023 01:18 8,8 C 5,6 C 82 % 1021,0 hPa 0,0 l/m 2,4 km/h (1 Bft) N-NO 15 0 min 0,0 UV-I 0 W/m 5,9 C 8,8 C 3,2 km/h (1 Bft)
03.06.2023 01:21 8,8 C 5,6 C 83 % 1020,9 hPa 0,0 l/m 2,0 km/h (1 Bft) N-NO 15 0 min 0,0 UV-I 0 W/m 6,1 C 8,8 C 4,8 km/h (1 Bft)
03.06.2023 01:24 8,8 C 5,6 C 83 % 1020,9 hPa 0,0 l/m 1,3 km/h (1 Bft) N-NO 15 0 min 0,0 UV-I 0 W/m 6,1 C 8,8 C 4,8 km/h (1 Bft)
03.06.2023 01:27 8,7 C 5,6 C 83 % 1021,0 hPa 0,0 l/m 2,7 km/h (1 Bft) N-NO 15 0 min 0,0 UV-I 0 W/m 6,0 C 8,7 C 4,8 km/h (1 Bft)
03.06.2023 01:30 8,7 C 5,6 C 83 % 1020,8 hPa 0,0 l/m 2,2 km/h (1 Bft) N-NO 15 0 min 0,0 UV-I 0 W/m 6,0 C 8,7 C 3,2 km/h (1 Bft)
03.06.2023 01:33 8,4 C 5,6 C 83 % 1021,0 hPa 0,0 l/m 2,4 km/h (1 Bft) N-NO 15 0 min 0,0 UV-I 0 W/m 5,7 C 8,4 C 3,2 km/h (1 Bft)
03.06.2023 01:36 8,3 C 5,6 C 83 % 1021,0 hPa 0,0 l/m 1,3 km/h (1 Bft) N-NO 15 0 min 0,0 UV-I 0 W/m 5,6 C 8,3 C 3,2 km/h (1 Bft)
03.06.2023 01:39 8,2 C 5,6 C 83 % 1021,0 hPa 0,0 l/m 0,7 km/h (0 Bft) N-NO 15 0 min 0,0 UV-I 0 W/m 5,5 C 8,2 C 1,6 km/h (1 Bft)
03.06.2023 01:42 8,2 C 5,6 C 84 % 1020,9 hPa 0,0 l/m 0,3 km/h (0 Bft) N-NO 15 0 min 0,0 UV-I 0 W/m 5,7 C 8,2 C 1,6 km/h (1 Bft)
03.06.2023 01:45 8,1 C 5,6 C 84 % 1021,0 hPa 0,0 l/m 0,0 km/h (0 Bft) N-NO 15 0 min 0,0 UV-I 0 W/m 5,6 C 8,1 C 1,6 km/h (1 Bft)
03.06.2023 01:48 8,1 C 5,6 C 84 % 1020,9 hPa 0,0 l/m 0,6 km/h (0 Bft) N-NO 15 0 min 0,0 UV-I 0 W/m 5,6 C 8,1 C 1,6 km/h (1 Bft)
03.06.2023 01:51 7,8 C 5,6 C 84 % 1020,9 hPa 0,0 l/m 1,6 km/h (1 Bft) N-NO 15 0 min 0,0 UV-I 0 W/m 5,3 C 7,8 C 3,2 km/h (1 Bft)
03.06.2023 01:54 7,8 C 5,0 C 84 % 1020,9 hPa 0,0 l/m 1,4 km/h (1 Bft) N-NO 15 0 min 0,0 UV-I 0 W/m 5,3 C 7,8 C 3,2 km/h (1 Bft)
03.06.2023 01:57 7,7 C 5,0 C 84 % 1020,9 hPa 0,0 l/m 1,7 km/h (1 Bft) N-NO 15 0 min 0,0 UV-I 0 W/m 5,2 C 7,7 C 3,2 km/h (1 Bft)
03.06.2023 02:00 7,7 C 5,0 C 85 % 1020,9 hPa 0,0 l/m 2,2 km/h (1 Bft) N-NO 15 0 min 0,0 UV-I 0 W/m 5,3 C 7,7 C 3,2 km/h (1 Bft)
03.06.2023 02:03 7,6 C 5,0 C 85 % 1020,9 hPa 0,0 l/m 1,7 km/h (1 Bft) N-NO 15 0 min 0,0 UV-I 0 W/m 5,2 C 7,6 C 3,2 km/h (1 Bft)
03.06.2023 02:06 7,4 C 5,0 C 85 % 1020,8 hPa 0,0 l/m 0,6 km/h (0 Bft) N-NO 15 0 min 0,0 UV-I 0 W/m 5,0 C 7,4 C 3,2 km/h (1 Bft)
03.06.2023 02:09 7,2 C 5,0 C 85 % 1020,8 hPa 0,0 l/m 0,0 km/h (0 Bft) N-NO 15 0 min 0,0 UV-I 0 W/m 4,9 C 7,2 C 0,0 km/h (0 Bft)
03.06.2023 02:12 7,1 C 4,4 C 85 % 1020,8 hPa 0,0 l/m 0,0 km/h (0 Bft) N-NO 15 0 min 0,0 UV-I 0 W/m 4,8 C 7,1 C 0,0 km/h (0 Bft)
03.06.2023 02:15 6,9 C 4,4 C 86 % 1020,8 hPa 0,0 l/m 2,7 km/h (1 Bft) N-NO 15 0 min 0,0 UV-I 0 W/m 4,7 C 6,9 C 4,8 km/h (1 Bft)
03.06.2023 02:18 6,9 C 4,4 C 86 % 1020,8 hPa 0,0 l/m 3,4 km/h (1 Bft) N-NO 15 0 min 0,0 UV-I 0 W/m 4,7 C 6,9 C 4,8 km/h (1 Bft)
03.06.2023 02:21 6,9 C 4,4 C 86 % 1020,8 hPa 0,0 l/m 3,4 km/h (1 Bft) N-NO 15 0 min 0,0 UV-I 0 W/m 4,7 C 6,9 C 4,8 km/h (1 Bft)
03.06.2023 02:24 6,8 C 4,4 C 87 % 1020,7 hPa 0,0 l/m 3,6 km/h (1 Bft) N-NO 15 0 min 0,0 UV-I 0 W/m 4,8 C 6,8 C 4,8 km/h (1 Bft)
03.06.2023 02:27 6,9 C 4,4 C 87 % 1020,7 hPa 0,0 l/m 3,2 km/h (1 Bft) N-NO 15 0 min 0,0 UV-I 0 W/m 4,9 C 6,9 C 4,8 km/h (1 Bft)
03.06.2023 02:30 6,9 C 4,4 C 87 % 1020,7 hPa 0,0 l/m 2,5 km/h (1 Bft) N-NO 15 0 min 0,0 UV-I 0 W/m 4,9 C 6,9 C 3,2 km/h (1 Bft)
03.06.2023 02:33 6,7 C 4,4 C 87 % 1020,8 hPa 0,0 l/m 1,4 km/h (1 Bft) N-NO 15 0 min 0,0 UV-I 0 W/m 4,7 C 6,7 C 1,6 km/h (1 Bft)
03.06.2023 02:36 6,6 C 4,4 C 87 % 1020,7 hPa 0,0 l/m 3,0 km/h (1 Bft) N-NO 15 0 min 0,0 UV-I 0 W/m 4,6 C 6,6 C 4,8 km/h (1 Bft)
03.06.2023 02:39 6,6 C 4,4 C 87 % 1020,7 hPa 0,0 l/m 3,0 km/h (1 Bft) N-NO 15 0 min 0,0 UV-I 0 W/m 4,6 C 6,6 C 4,8 km/h (1 Bft)
03.06.2023 02:42 6,6 C 4,4 C 87 % 1020,6 hPa 0,0 l/m 3,9 km/h (1 Bft) N-NO 15 0 min 0,0 UV-I 0 W/m 4,6 C 6,6 C 4,8 km/h (1 Bft)
03.06.2023 02:45 6,5 C 4,4 C 88 % 1020,6 hPa 0,0 l/m 4,2 km/h (1 Bft) N-NO 15 0 min 0,0 UV-I 0 W/m 4,7 C 6,5 C 6,4 km/h (2 Bft)
03.06.2023 02:48 6,5 C 3,9 C 88 % 1020,7 hPa 0,0 l/m 4,9 km/h (1 Bft) N-NO 15 0 min 0,0 UV-I 0 W/m 4,7 C 6,5 C 6,4 km/h (2 Bft)
03.06.2023 02:51 6,4 C 3,9 C 87 % 1020,6 hPa 0,0 l/m 4,1 km/h (1 Bft) N-NO 15 0 min 0,0 UV-I 0 W/m 4,4 C 6,4 C 6,4 km/h (2 Bft)
03.06.2023 02:54 6,2 C 3,9 C 87 % 1020,6 hPa 0,0 l/m 4,8 km/h (1 Bft) N-NO 15 0 min 0,0 UV-I 0 W/m 4,2 C 6,2 C 6,4 km/h (2 Bft)
03.06.2023 02:57 6,3 C 3,9 C 88 % 1020,6 hPa 0,0 l/m 4,5 km/h (1 Bft) N-NO 15 0 min 0,0 UV-I 0 W/m 4,5 C 6,3 C 6,4 km/h (2 Bft)
03.06.2023 03:00 5,9 C 3,9 C 87 % 1020,6 hPa 0,0 l/m 3,9 km/h (1 Bft) N-NO 16 0 min 0,0 UV-I 0 W/m 3,9 C 5,9 C 6,4 km/h (2 Bft)
03.06.2023 03:03 5,8 C 3,9 C 87 % 1020,5 hPa 0,0 l/m 3,2 km/h (1 Bft) N-NO 16 0 min 0,0 UV-I 0 W/m 3,8 C 5,8 C 4,8 km/h (1 Bft)
03.06.2023 03:06 5,8 C 3,9 C 88 % 1020,5 hPa 0,0 l/m 3,0 km/h (1 Bft) N-NO 15 0 min 0,0 UV-I 0 W/m 4,0 C 5,8 C 4,8 km/h (1 Bft)
03.06.2023 03:09 5,9 C 3,9 C 88 % 1020,4 hPa 0,0 l/m 2,2 km/h (1 Bft) N-NO 16 0 min 0,0 UV-I 0 W/m 4,1 C 5,9 C 3,2 km/h (1 Bft)
03.06.2023 03:12 5,8 C 3,9 C 88 % 1020,4 hPa 0,0 l/m 1,8 km/h (1 Bft) N-NO 16 0 min 0,0 UV-I 0 W/m 4,0 C 5,8 C 3,2 km/h (1 Bft)
03.06.2023 03:15 5,6 C 3,9 C 88 % 1020,4 hPa 0,0 l/m 0,5 km/h (0 Bft) N-NO 16 0 min 0,0 UV-I 0 W/m 3,8 C 5,6 C 1,6 km/h (1 Bft)
03.06.2023 03:18 5,8 C 3,9 C 88 % 1020,4 hPa 0,0 l/m 0,6 km/h (0 Bft) N-NO 16 0 min 0,0 UV-I 0 W/m 4,0 C 5,8 C 1,6 km/h (1 Bft)
03.06.2023 03:21 6,0 C 3,9 C 89 % 1020,5 hPa 0,0 l/m 1,2 km/h (1 Bft) N-NO 16 0 min 0,0 UV-I 0 W/m 4,3 C 6,0 C 1,6 km/h (1 Bft)
03.06.2023 03:24 5,9 C 3,3 C 88 % 1020,4 hPa 0,0 l/m 0,4 km/h (0 Bft) N-NO 16 0 min 0,0 UV-I 0 W/m 4,1 C 5,9 C 1,6 km/h (1 Bft)
03.06.2023 03:27 5,9 C 3,3 C 89 % 1020,4 hPa 0,0 l/m 0,4 km/h (0 Bft) N-NO 15 0 min 0,0 UV-I 0 W/m 4,2 C 5,9 C 3,2 km/h (1 Bft)
03.06.2023 03:30 6,1 C 3,3 C 89 % 1020,4 hPa 0,0 l/m 0,7 km/h (0 Bft) N-NO 16 0 min 0,0 UV-I 0 W/m 4,4 C 6,1 C 1,6 km/h (1 Bft)
03.06.2023 03:33 5,9 C 3,3 C 89 % 1020,4 hPa 0,0 l/m 0,2 km/h (0 Bft) N-NO 16 0 min 0,0 UV-I 0 W/m 4,2 C 5,9 C 1,6 km/h (1 Bft)
03.06.2023 03:36 5,9 C 3,3 C 89 % 1020,4 hPa 0,0 l/m 0,6 km/h (0 Bft) N-NO 16 0 min 0,0 UV-I 0 W/m 4,2 C 5,9 C 1,6 km/h (1 Bft)
03.06.2023 03:39 5,9 C 3,3 C 89 % 1020,4 hPa 0,0 l/m 0,8 km/h (0 Bft) N-NO 16 0 min 0,0 UV-I 0 W/m 4,2 C 5,9 C 1,6 km/h (1 Bft)
03.06.2023 03:42 5,9 C 3,3 C 89 % 1020,4 hPa 0,0 l/m 1,1 km/h (1 Bft) N-NO 16 0 min 0,0 UV-I 0 W/m 4,2 C 5,9 C 3,2 km/h (1 Bft)
03.06.2023 03:45 5,8 C 3,3 C 89 % 1020,4 hPa 0,0 l/m 0,6 km/h (0 Bft) N-NO 15 0 min 0,0 UV-I 0 W/m 4,1 C 5,8 C 1,6 km/h (1 Bft)
03.06.2023 03:48 5,8 C 3,3 C 89 % 1020,4 hPa 0,0 l/m 1,8 km/h (1 Bft) N-NO 16 0 min 0,0 UV-I 0 W/m 4,1 C 5,8 C 3,2 km/h (1 Bft)
03.06.2023 03:51 5,8 C 3,3 C 89 % 1020,4 hPa 0,0 l/m 1,2 km/h (1 Bft) N-NO 16 0 min 0,0 UV-I 0 W/m 4,1 C 5,8 C 3,2 km/h (1 Bft)
03.06.2023 03:54 5,9 C 3,3 C 90 % 1020,4 hPa 0,0 l/m 1,6 km/h (1 Bft) N-NO 16 0 min 0,0 UV-I 0 W/m 4,4 C 5,9 C 3,2 km/h (1 Bft)
03.06.2023 03:57 5,7 C 3,3 C 88 % 1020,5 hPa 0,0 l/m 0,8 km/h (0 Bft) N-NO 15 0 min 0,0 UV-I 0 W/m 3,9 C 5,7 C 3,2 km/h (1 Bft)
03.06.2023 04:00 5,5 C 3,3 C 89 % 1020,4 hPa 0,0 l/m 0,6 km/h (0 Bft) N-NO 16 0 min 0,0 UV-I 0 W/m 3,8 C 5,5 C 4,8 km/h (1 Bft)
03.06.2023 04:03 5,6 C 3,3 C 89 % 1020,5 hPa 0,0 l/m 0,2 km/h (0 Bft) N-NO 16 0 min 0,0 UV-I 0 W/m 3,9 C 5,6 C 1,6 km/h (1 Bft)
03.06.2023 04:06 5,7 C 3,3 C 90 % 1020,4 hPa 0,0 l/m 0,0 km/h (0 Bft) N-NO 16 0 min 0,0 UV-I 0 W/m 4,2 C 5,7 C 1,6 km/h (1 Bft)
03.06.2023 04:09 5,8 C 3,9 C 90 % 1020,4 hPa 0,0 l/m 0,2 km/h (0 Bft) N-NO 16 0 min 0,0 UV-I 0 W/m 4,3 C 5,8 C 1,6 km/h (1 Bft)
03.06.2023 04:12 5,8 C 3,9 C 89 % 1020,3 hPa 0,0 l/m 0,0 km/h (0 Bft) N-NO 16 0 min 0,0 UV-I 0 W/m 4,1 C 5,8 C 0,0 km/h (0 Bft)
03.06.2023 04:15 5,7 C 3,9 C 89 % 1020,4 hPa 0,0 l/m 0,0 km/h (0 Bft) N-NO 16 0 min 0,0 UV-I 0 W/m 4,0 C 5,7 C 0,0 km/h (0 Bft)
03.06.2023 04:18 5,8 C 3,9 C 90 % 1020,4 hPa 0,0 l/m 0,0 km/h (0 Bft) N-NO 16 0 min 0,0 UV-I 0 W/m 4,3 C 5,8 C 0,0 km/h (0 Bft)
03.06.2023 04:21 5,9 C 3,9 C 90 % 1020,4 hPa 0,0 l/m 0,0 km/h (0 Bft) N-NO 16 0 min 0,0 UV-I 0 W/m 4,4 C 5,9 C 1,6 km/h (1 Bft)
03.06.2023 04:24 5,8 C 3,9 C 89 % 1020,3 hPa 0,0 l/m 0,5 km/h (0 Bft) N-NO 16 0 min 0,0 UV-I 0 W/m 4,1 C 5,8 C 1,6 km/h (1 Bft)
03.06.2023 04:27 5,8 C 3,9 C 90 % 1020,3 hPa 0,0 l/m 0,7 km/h (0 Bft) N-NO 16 0 min 0,0 UV-I 0 W/m 4,3 C 5,8 C 1,6 km/h (1 Bft)
03.06.2023 04:30 5,8 C 3,9 C 90 % 1020,3 hPa 0,0 l/m 1,3 km/h (1 Bft) N-NO 16 0 min 0,0 UV-I 0 W/m 4,3 C 5,8 C 3,2 km/h (1 Bft)
03.06.2023 04:33 5,8 C 3,9 C 89 % 1020,3 hPa 0,0 l/m 0,5 km/h (0 Bft) N-NO 16 0 min 0,0 UV-I 0 W/m 4,1 C 5,8 C 3,2 km/h (1 Bft)
03.06.2023 04:36 5,6 C 3,3 C 89 % 1020,3 hPa 0,0 l/m 0,5 km/h (0 Bft) N-NO 16 0 min 0,0 UV-I 0 W/m 3,9 C 5,6 C 3,2 km/h (1 Bft)
03.06.2023 04:39 5,7 C 3,3 C 90 % 1020,3 hPa 0,0 l/m 2,7 km/h (1 Bft) N-NO 16 0 min 0,0 UV-I 0 W/m 4,2 C 5,7 C 4,8 km/h (1 Bft)
03.06.2023 04:42 5,6 C 3,3 C 89 % 1020,4 hPa 0,0 l/m 1,4 km/h (1 Bft) N-NO 16 0 min 0,0 UV-I 0 W/m 3,9 C 5,6 C 3,2 km/h (1 Bft)
03.06.2023 04:45 5,4 C 3,3 C 89 % 1020,4 hPa 0,0 l/m 1,1 km/h (1 Bft) N-NO 16 0 min 0,0 UV-I 0 W/m 3,7 C 5,4 C 3,2 km/h (1 Bft)
03.06.2023 04:48 5,3 C 3,3 C 89 % 1020,3 hPa 0,0 l/m 0,8 km/h (0 Bft) N-NO 16 0 min 0,0 UV-I 0 W/m 3,6 C 5,3 C 3,2 km/h (1 Bft)
03.06.2023 04:51 5,3 C 3,3 C 89 % 1020,3 hPa 0,0 l/m 1,1 km/h (1 Bft) N-NO 16 0 min 0,0 UV-I 0 W/m 3,6 C 5,3 C 3,2 km/h (1 Bft)
03.06.2023 04:54 5,2 C 3,3 C 89 % 1020,4 hPa 0,0 l/m 0,1 km/h (0 Bft) N-NO 16 0 min 0,0 UV-I 0 W/m 3,5 C 5,2 C 1,6 km/h (1 Bft)
03.06.2023 04:57 5,2 C 3,3 C 90 % 1020,3 hPa 0,0 l/m 0,0 km/h (0 Bft) N-NO 16 0 min 0,0 UV-I 0 W/m 3,7 C 5,2 C 1,6 km/h (1 Bft)
03.06.2023 05:00 5,4 C 2,8 C 90 % 1020,4 hPa 0,0 l/m 0,0 km/h (0 Bft) N-NO 16 0 min 0,0 UV-I 0 W/m 3,9 C 5,4 C 1,6 km/h (1 Bft)
03.06.2023 05:03 5,6 C 3,3 C 90 % 1020,4 hPa 0,0 l/m 0,2 km/h (0 Bft) N-NO 16 0 min 0,0 UV-I 0 W/m 4,1 C 5,6 C 1,6 km/h (1 Bft)
03.06.2023 05:07 5,8 C 3,3 C 90 % 1020,5 hPa 0,0 l/m 0,2 km/h (0 Bft) N-NO 16 0 min 0,0 UV-I 0 W/m 4,3 C 5,8 C 1,6 km/h (1 Bft)
03.06.2023 05:09 5,7 C 3,3 C 90 % 1020,5 hPa 0,0 l/m 0,0 km/h (0 Bft) N-NO 16 0 min 0,0 UV-I 0 W/m 4,2 C 5,7 C 0,0 km/h (0 Bft)
03.06.2023 05:12 5,4 C 3,3 C 89 % 1020,4 hPa 0,0 l/m 0,0 km/h (0 Bft) N-NO 16 0 min 0,0 UV-I 0 W/m 3,7 C 5,4 C 0,0 km/h (0 Bft)
03.06.2023 05:15 5,3 C 3,3 C 90 % 1020,6 hPa 0,0 l/m 0,0 km/h (0 Bft) N-NO 16 0 min 0,0 UV-I 0 W/m 3,8 C 5,3 C 0,0 km/h (0 Bft)
03.06.2023 05:18 5,2 C 3,3 C 89 % 1020,6 hPa 0,0 l/m 0,1 km/h (0 Bft) N-NO 16 0 min 0,0 UV-I 0 W/m 3,5 C 5,2 C 1,6 km/h (1 Bft)
03.06.2023 05:21 5,0 C 3,3 C 89 % 1020,6 hPa 0,0 l/m 0,9 km/h (0 Bft) N-NO 16 0 min 0,0 UV-I 0 W/m 3,3 C 5,0 C 1,6 km/h (1 Bft)
03.06.2023 05:24 4,9 C 3,3 C 90 % 1020,7 hPa 0,0 l/m 0,5 km/h (0 Bft) N-NO 16 0 min 0,0 UV-I 0 W/m 3,4 C 4,9 C 1,6 km/h (1 Bft)
03.06.2023 05:27 5,1 C 3,3 C 90 % 1020,8 hPa 0,0 l/m 0,1 km/h (0 Bft) N-NO 16 0 min 0,0 UV-I 0 W/m 3,6 C 5,1 C 1,6 km/h (1 Bft)
03.06.2023 05:30 5,1 C 3,3 C 90 % 1020,8 hPa 0,0 l/m 0,4 km/h (0 Bft) N-NO 16 0 min 0,0 UV-I 0 W/m 3,6 C 5,1 C 1,6 km/h (1 Bft)
03.06.2023 05:33 4,8 C 3,3 C 90 % 1020,7 hPa 0,0 l/m 0,0 km/h (0 Bft) N-NO 16 0 min 0,0 UV-I 2 W/m 3,3 C 4,8 C 0,0 km/h (0 Bft)
03.06.2023 05:36 4,8 C 3,3 C 90 % 1020,7 hPa 0,0 l/m 0,0 km/h (0 Bft) N-NO 16 0 min 0,0 UV-I 5 W/m 3,3 C 4,8 C 0,0 km/h (0 Bft)
03.06.2023 05:39 4,8 C 3,3 C 90 % 1020,7 hPa 0,0 l/m 0,0 km/h (0 Bft) N-NO 16 0 min 0,0 UV-I 6 W/m 3,3 C 4,8 C 0,0 km/h (0 Bft)
03.06.2023 05:42 5,0 C 3,3 C 90 % 1020,8 hPa 0,0 l/m 0,0 km/h (0 Bft) N-NO 16 0 min 0,0 UV-I 7 W/m 3,5 C 5,0 C 0,0 km/h (0 Bft)
03.06.2023 05:45 5,2 C 3,3 C 91 % 1020,8 hPa 0,0 l/m 0,0 km/h (0 Bft) N-NO 16 0 min 0,0 UV-I 8 W/m 3,9 C 5,2 C 0,0 km/h (0 Bft)
03.06.2023 05:48 5,3 C 3,3 C 91 % 1020,7 hPa 0,0 l/m 0,4 km/h (0 Bft) N-NO 16 0 min 0,0 UV-I 10 W/m 4,0 C 5,3 C 1,6 km/h (1 Bft)
03.06.2023 05:51 5,3 C 3,3 C 90 % 1020,8 hPa 0,0 l/m 1,0 km/h (0 Bft) N-NO 16 0 min 0,0 UV-I 11 W/m 3,8 C 5,3 C 3,2 km/h (1 Bft)
03.06.2023 05:54 5,1 C 3,3 C 90 % 1020,9 hPa 0,0 l/m 1,8 km/h (1 Bft) N-NO 16 0 min 0,0 UV-I 12 W/m 3,6 C 5,1 C 3,2 km/h (1 Bft)
03.06.2023 05:57 5,0 C 3,3 C 90 % 1020,8 hPa 0,0 l/m 1,2 km/h (1 Bft) N-NO 16 0 min 0,0 UV-I 13 W/m 3,5 C 5,0 C 3,2 km/h (1 Bft)
03.06.2023 06:00 4,9 C 3,3 C 90 % 1020,9 hPa 0,0 l/m 0,0 km/h (0 Bft) N-NO 16 0 min 0,0 UV-I 15 W/m 3,4 C 4,9 C 0,0 km/h (0 Bft)
03.06.2023 06:03 4,9 C 3,3 C 91 % 1020,8 hPa 0,0 l/m 0,0 km/h (0 Bft) N-NO 16 0 min 0,0 UV-I 16 W/m 3,6 C 4,9 C 0,0 km/h (0 Bft)
03.06.2023 06:06 5,2 C 3,3 C 91 % 1020,8 hPa 0,0 l/m 0,0 km/h (0 Bft) N-NO 16 0 min 0,0 UV-I 17 W/m 3,9 C 5,2 C 1,6 km/h (1 Bft)
03.06.2023 06:09 5,4 C 3,9 C 91 % 1020,8 hPa 0,0 l/m 2,8 km/h (1 Bft) N-NO 16 0 min 0,0 UV-I 19 W/m 4,1 C 5,4 C 4,8 km/h (1 Bft)
03.06.2023 06:12 5,9 C 3,9 C 92 % 1020,9 hPa 0,0 l/m 4,3 km/h (1 Bft) N-NO 16 0 min 0,0 UV-I 21 W/m 4,7 C 5,9 C 6,4 km/h (2 Bft)
03.06.2023 06:15 6,1 C 3,9 C 91 % 1020,8 hPa 0,0 l/m 4,4 km/h (1 Bft) N-NO 16 0 min 0,0 UV-I 24 W/m 4,7 C 6,1 C 6,4 km/h (2 Bft)
03.06.2023 06:18 6,4 C 3,9 C 91 % 1020,9 hPa 0,0 l/m 3,9 km/h (1 Bft) N-NO 16 0 min 0,0 UV-I 27 W/m 5,0 C 6,4 C 6,4 km/h (2 Bft)
03.06.2023 06:21 6,3 C 4,4 C 91 % 1020,9 hPa 0,0 l/m 2,2 km/h (1 Bft) N-NO 16 0 min 0,0 UV-I 31 W/m 4,9 C 6,3 C 4,8 km/h (1 Bft)
03.06.2023 06:24 5,9 C 4,4 C 90 % 1020,9 hPa 0,0 l/m 1,9 km/h (1 Bft) N-NO 16 0 min 0,0 UV-I 35 W/m 4,4 C 5,9 C 3,2 km/h (1 Bft)
03.06.2023 06:27 5,9 C 4,4 C 91 % 1020,9 hPa 0,0 l/m 2,8 km/h (1 Bft) N-NO 16 0 min 0,0 UV-I 40 W/m 4,5 C 5,9 C 4,8 km/h (1 Bft)
03.06.2023 06:30 6,2 C 4,4 C 90 % 1020,9 hPa 0,0 l/m 2,6 km/h (1 Bft) N-NO 16 0 min 0,0 UV-I 45 W/m 4,7 C 6,2 C 4,8 km/h (1 Bft)
03.06.2023 06:33 6,6 C 4,4 C 91 % 1020,9 hPa 0,0 l/m 4,5 km/h (1 Bft) N-NO 16 0 min 0,0 UV-I 50 W/m 5,2 C 6,6 C 8,0 km/h (2 Bft)
03.06.2023 06:36 6,8 C 5,0 C 90 % 1020,8 hPa 0,0 l/m 5,0 km/h (1 Bft) N-NO 17 0 min 0,0 UV-I 54 W/m 5,3 C 6,8 C 8,0 km/h (2 Bft)
03.06.2023 06:39 7,0 C 5,0 C 90 % 1020,8 hPa 0,0 l/m 4,2 km/h (1 Bft) N-NO 15 0 min 0,0 UV-I 61 W/m 5,5 C 7,0 C 6,4 km/h (2 Bft)
03.06.2023 06:42 7,2 C 5,0 C 90 % 1020,8 hPa 0,0 l/m 5,9 km/h (2 Bft) N-NO 25 0 min 0,0 UV-I 65 W/m 5,7 C 7,2 C 8,0 km/h (2 Bft)
03.06.2023 06:45 7,4 C 5,6 C 90 % 1020,7 hPa 0,0 l/m 6,1 km/h (2 Bft) N-NO 21 0 min 0,0 UV-I 71 W/m 5,9 C 7,4 C 8,0 km/h (2 Bft)
03.06.2023 06:48 7,6 C 5,6 C 89 % 1020,8 hPa 0,0 l/m 5,7 km/h (1 Bft) N-NO 19 0 min 0,0 UV-I 77 W/m 5,9 C 7,6 C 8,0 km/h (2 Bft)
03.06.2023 06:51 7,7 C 6,1 C 89 % 1020,8 hPa 0,0 l/m 5,6 km/h (1 Bft) N-NO 26 0 min 0,0 UV-I 83 W/m 6,0 C 7,7 C 8,0 km/h (2 Bft)
03.06.2023 06:54 7,8 C 6,1 C 89 % 1020,7 hPa 0,0 l/m 6,1 km/h (2 Bft) NO 34 0 min 0,0 UV-I 91 W/m 6,1 C 7,8 C 8,0 km/h (2 Bft)
03.06.2023 06:57 8,1 C 6,7 C 88 % 1020,7 hPa 0,0 l/m 6,0 km/h (2 Bft) N-NO 27 0 min 0,0 UV-I 98 W/m 6,2 C 8,1 C 8,0 km/h (2 Bft)
03.06.2023 07:00 8,3 C 7,8 C 88 % 1020,7 hPa 0,0 l/m 7,3 km/h (2 Bft) N-NO 24 0 min 0,0 UV-I 104 W/m 6,4 C 7,6 C 11,3 km/h (2 Bft)
03.06.2023 07:01 8,3 C 7,8 C 88 % 1020,8 hPa 0,0 l/m 6,4 km/h (2 Bft) N-NO 22 0 min 0,5 UV-I 111 W/m 6,4 C 8,3 C 9,7 km/h (2 Bft)
03.06.2023 07:03 8,4 C 8,3 C 87 % 1020,8 hPa 0,0 l/m 6,0 km/h (2 Bft) N-NO 23 0 min 0,5 UV-I 114 W/m 6,4 C 8,4 C 8,0 km/h (2 Bft)
03.06.2023 07:06 8,4 C 8,9 C 87 % 1020,7 hPa 0,0 l/m 6,3 km/h (2 Bft) N-NO 22 0 min 0,5 UV-I 118 W/m 6,4 C 8,4 C 9,7 km/h (2 Bft)
03.06.2023 07:09 8,6 C 8,9 C 86 % 1020,7 hPa 0,0 l/m 6,8 km/h (2 Bft) N-NO 23 0 min 0,5 UV-I 120 W/m 6,4 C 8,3 C 11,3 km/h (2 Bft)
03.06.2023 07:12 8,8 C 9,4 C 86 % 1020,7 hPa 0,0 l/m 6,9 km/h (2 Bft) N-NO 26 0 min 0,5 UV-I 120 W/m 6,6 C 8,4 C 9,7 km/h (2 Bft)
03.06.2023 07:15 8,9 C 10,0 C 86 % 1020,7 hPa 0,0 l/m 6,6 km/h (2 Bft) NO 46 0 min 0,6 UV-I 121 W/m 6,7 C 8,8 C 11,3 km/h (2 Bft)
03.06.2023 07:18 9,2 C 10,0 C 85 % 1020,8 hPa 0,0 l/m 7,3 km/h (2 Bft) NO 34 0 min 0,6 UV-I 128 W/m 6,8 C 8,5 C 12,9 km/h (3 Bft)
03.06.2023 07:21 9,3 C 10,0 C 84 % 1020,7 hPa 0,0 l/m 8,4 km/h (2 Bft) N-NO 30 0 min 0,6 UV-I 140 W/m 6,7 C 7,8 C 14,5 km/h (3 Bft)
03.06.2023 07:24 9,6 C 10,6 C 85 % 1020,7 hPa 0,0 l/m 7,7 km/h (2 Bft) NO 34 3 min 0,7 UV-I 157 W/m 7,2 C 8,6 C 11,3 km/h (2 Bft)
03.06.2023 07:27 9,7 C 10,6 C 84 % 1020,7 hPa 0,0 l/m 8,0 km/h (2 Bft) N-NO 32 3 min 0,7 UV-I 172 W/m 7,1 C 8,5 C 14,5 km/h (3 Bft)
03.06.2023 07:30 9,8 C 10,6 C 83 % 1020,7 hPa 0,0 l/m 8,4 km/h (2 Bft) N-NO 33 3 min 0,7 UV-I 180 W/m 7,1 C 8,4 C 14,5 km/h (3 Bft)
03.06.2023 07:33 9,9 C 10,6 C 82 % 1020,7 hPa 0,0 l/m 8,8 km/h (2 Bft) NO 41 3 min 0,8 UV-I 189 W/m 7,0 C 8,2 C 14,5 km/h (3 Bft)
03.06.2023 07:36 10,1 C 10,6 C 82 % 1020,7 hPa 0,0 l/m 9,3 km/h (2 Bft) NO 39 3 min 0,8 UV-I 196 W/m 7,2 C 8,1 C 14,5 km/h (3 Bft)
03.06.2023 07:39 10,2 C 10,6 C 81 % 1020,7 hPa 0,0 l/m 9,8 km/h (2 Bft) NO 41 3 min 0,9 UV-I 205 W/m 7,1 C 7,9 C 16,1 km/h (3 Bft)
03.06.2023 07:42 10,3 C 10,6 C 81 % 1020,6 hPa 0,0 l/m 11,5 km/h (2 Bft) NO 45 3 min 0,9 UV-I 212 W/m 7,2 C 7,1 C 19,3 km/h (3 Bft)
03.06.2023 07:45 10,4 C 10,0 C 80 % 1020,7 hPa 0,0 l/m 10,8 km/h (2 Bft) N-NO 22 3 min 0,9 UV-I 220 W/m 7,1 C 7,6 C 17,7 km/h (3 Bft)
03.06.2023 07:48 10,6 C 10,6 C 80 % 1020,7 hPa 0,0 l/m 10,6 km/h (2 Bft) NO 54 3 min 1,0 UV-I 229 W/m 7,3 C 7,9 C 16,1 km/h (3 Bft)
03.06.2023 07:51 10,7 C 10,6 C 79 % 1020,6 hPa 0,0 l/m 9,3 km/h (2 Bft) NO 44 3 min 1,0 UV-I 237 W/m 7,2 C 8,8 C 14,5 km/h (3 Bft)
03.06.2023 07:54 10,8 C 10,6 C 79 % 1020,8 hPa 0,0 l/m 11,0 km/h (2 Bft) NO 44 3 min 1,0 UV-I 246 W/m 7,3 C 7,9 C 19,3 km/h (3 Bft)
03.06.2023 07:57 10,8 C 11,1 C 78 % 1020,7 hPa 0,0 l/m 10,5 km/h (2 Bft) NO 37 3 min 1,1 UV-I 257 W/m 7,1 C 8,2 C 16,1 km/h (3 Bft)
03.06.2023 08:00 10,9 C 11,7 C 78 % 1020,7 hPa 0,0 l/m 10,6 km/h (2 Bft) NO 42 3 min 1,1 UV-I 266 W/m 7,2 C 8,3 C 14,5 km/h (3 Bft)
03.06.2023 08:03 11,1 C 12,2 C 77 % 1020,6 hPa 0,0 l/m 8,3 km/h (2 Bft) O-NO 61 3 min 1,2 UV-I 274 W/m 7,2 C 9,8 C 14,5 km/h (3 Bft)
03.06.2023 08:06 11,2 C 12,2 C 77 % 1020,7 hPa 0,0 l/m 11,0 km/h (2 Bft) NO 34 3 min 1,2 UV-I 283 W/m 7,3 C 8,4 C 19,3 km/h (3 Bft)
03.06.2023 08:09 11,3 C 12,8 C 76 % 1020,7 hPa 0,0 l/m 12,7 km/h (3 Bft) N-NO 26 3 min 1,3 UV-I 291 W/m 7,2 C 7,7 C 19,3 km/h (3 Bft)
03.06.2023 08:12 11,4 C 12,2 C 75 % 1020,6 hPa 0,0 l/m 11,1 km/h (2 Bft) NO 38 3 min 1,3 UV-I 298 W/m 7,1 C 8,6 C 17,7 km/h (3 Bft)
03.06.2023 08:15 11,6 C 12,2 C 76 % 1020,6 hPa 0,0 l/m 12,1 km/h (2 Bft) N-NO 32 3 min 1,3 UV-I 307 W/m 7,5 C 8,3 C 17,7 km/h (3 Bft)
03.06.2023 08:18 11,7 C 12,2 C 75 % 1020,5 hPa 0,0 l/m 13,0 km/h (3 Bft) NO 56 3 min 1,4 UV-I 316 W/m 7,4 C 8,0 C 19,3 km/h (3 Bft)
03.06.2023 08:21 11,8 C 12,8 C 76 % 1020,5 hPa 0,0 l/m 10,2 km/h (2 Bft) NO 38 3 min 1,4 UV-I 325 W/m 7,7 C 9,5 C 16,1 km/h (3 Bft)
03.06.2023 08:24 11,9 C 12,8 C 75 % 1020,4 hPa 0,0 l/m 13,4 km/h (3 Bft) N-NO 32 3 min 1,5 UV-I 334 W/m 7,6 C 8,1 C 17,7 km/h (3 Bft)
03.06.2023 08:27 12,1 C 12,8 C 75 % 1020,5 hPa 0,0 l/m 12,3 km/h (3 Bft) N-NO 24 3 min 1,5 UV-I 341 W/m 7,8 C 8,8 C 17,7 km/h (3 Bft)
03.06.2023 08:30 12,2 C 12,8 C 74 % 1020,4 hPa 0,0 l/m 12,1 km/h (2 Bft) NO 44 3 min 1,6 UV-I 349 W/m 7,7 C 9,0 C 17,7 km/h (3 Bft)
03.06.2023 08:33 12,2 C 12,8 C 73 % 1020,4 hPa 0,0 l/m 14,0 km/h (3 Bft) N-NO 33 3 min 1,6 UV-I 357 W/m 7,5 C 8,2 C 20,9 km/h (4 Bft)
03.06.2023 08:36 12,3 C 13,3 C 74 % 1020,3 hPa 0,0 l/m 10,2 km/h (2 Bft) NO 34 3 min 1,7 UV-I 365 W/m 7,8 C 10,0 C 16,1 km/h (3 Bft)
03.06.2023 08:39 12,6 C 13,9 C 73 % 1020,3 hPa 0,0 l/m 10,0 km/h (2 Bft) O-NO 69 3 min 1,7 UV-I 373 W/m 7,9 C 10,5 C 14,5 km/h (3 Bft)
03.06.2023 08:42 12,7 C 13,9 C 73 % 1020,3 hPa 0,0 l/m 10,5 km/h (2 Bft) N-NO 28 3 min 1,8 UV-I 382 W/m 8,0 C 10,3 C 17,7 km/h (3 Bft)
03.06.2023 08:45 12,7 C 13,9 C 71 % 1020,4 hPa 0,0 l/m 13,3 km/h (3 Bft) N 9 3 min 1,8 UV-I 390 W/m 7,6 C 9,1 C 19,3 km/h (3 Bft)
03.06.2023 08:48 12,8 C 14,4 C 71 % 1020,3 hPa 0,0 l/m 9,7 km/h (2 Bft) NO 37 3 min 1,9 UV-I 396 W/m 7,7 C 10,8 C 14,5 km/h (3 Bft)
03.06.2023 08:51 13,1 C 15,0 C 72 % 1020,3 hPa 0,0 l/m 8,8 km/h (2 Bft) NO 46 3 min 1,9 UV-I 405 W/m 8,2 C 11,7 C 16,1 km/h (3 Bft)
03.06.2023 08:54 13,3 C 15,6 C 70 % 1020,3 hPa 0,0 l/m 9,5 km/h (2 Bft) NO 45 3 min 2,0 UV-I 414 W/m 7,9 C 11,5 C 19,3 km/h (3 Bft)
03.06.2023 08:57 13,3 C 15,6 C 68 % 1020,3 hPa 0,0 l/m 14,2 km/h (3 Bft) NO 50 3 min 2,0 UV-I 421 W/m 7,5 C 9,4 C 22,5 km/h (4 Bft)
03.06.2023 09:00 13,2 C 15,0 C 69 % 1020,3 hPa 0,0 l/m 10,8 km/h (2 Bft) O-NO 58 3 min 2,1 UV-I 429 W/m 7,6 C 10,7 C 16,1 km/h (3 Bft)
03.06.2023 09:03 13,3 C 15,0 C 68 % 1020,4 hPa 0,0 l/m 11,7 km/h (2 Bft) NO 42 3 min 2,1 UV-I 436 W/m 7,5 C 10,4 C 22,5 km/h (4 Bft)
03.06.2023 09:06 13,4 C 15,0 C 68 % 1020,3 hPa 0,0 l/m 11,2 km/h (2 Bft) N-NO 18 3 min 2,2 UV-I 444 W/m 7,6 C 10,8 C 17,7 km/h (3 Bft)
03.06.2023 09:09 13,4 C 15,0 C 68 % 1020,4 hPa 0,0 l/m 14,0 km/h (3 Bft) O 84 3 min 2,2 UV-I 452 W/m 7,6 C 9,6 C 19,3 km/h (3 Bft)
03.06.2023 09:12 13,5 C 15,0 C 68 % 1020,4 hPa 0,0 l/m 13,0 km/h (3 Bft) N-NO 33 3 min 2,3 UV-I 461 W/m 7,7 C 10,1 C 16,1 km/h (3 Bft)
03.06.2023 09:15 13,7 C 15,0 C 69 % 1020,3 hPa 0,0 l/m 17,4 km/h (3 Bft) N 10 3 min 2,3 UV-I 467 W/m 8,1 C 8,8 C 22,5 km/h (4 Bft)
03.06.2023 09:18 13,6 C 15,6 C 68 % 1020,4 hPa 0,0 l/m 13,8 km/h (3 Bft) O-NO 58 3 min 2,4 UV-I 476 W/m 7,8 C 9,9 C 24,1 km/h (4 Bft)
03.06.2023 09:21 13,7 C 16,1 C 68 % 1020,5 hPa 0,0 l/m 14,9 km/h (3 Bft) NO 53 3 min 2,4 UV-I 483 W/m 7,9 C 9,7 C 19,3 km/h (3 Bft)
03.06.2023 09:24 13,7 C 15,6 C 68 % 1020,5 hPa 0,0 l/m 16,0 km/h (3 Bft) NO 47 3 min 2,5 UV-I 490 W/m 7,9 C 9,3 C 22,5 km/h (4 Bft)
03.06.2023 09:27 13,7 C 15,6 C 67 % 1020,4 hPa 0,0 l/m 17,0 km/h (3 Bft) O-NO 73 3 min 2,5 UV-I 499 W/m 7,7 C 8,9 C 27,4 km/h (4 Bft)
03.06.2023 09:30 13,9 C 16,1 C 67 % 1020,5 hPa 0,0 l/m 14,9 km/h (3 Bft) NO 50 3 min 2,6 UV-I 505 W/m 7,9 C 9,9 C 24,1 km/h (4 Bft)
03.06.2023 09:33 13,9 C 16,1 C 66 % 1020,5 hPa 0,0 l/m 13,3 km/h (3 Bft) NO 43 3 min 2,7 UV-I 511 W/m 7,7 C 10,5 C 20,9 km/h (4 Bft)
03.06.2023 09:36 13,9 C 16,1 C 67 % 1020,5 hPa 0,0 l/m 13,6 km/h (3 Bft) N-NO 31 3 min 2,7 UV-I 512 W/m 7,9 C 10,4 C 24,1 km/h (4 Bft)
03.06.2023 09:39 14,0 C 15,6 C 66 % 1020,6 hPa 0,0 l/m 14,8 km/h (3 Bft) NO 56 3 min 2,8 UV-I 511 W/m 7,7 C 10,1 C 20,9 km/h (4 Bft)
03.06.2023 09:42 14,1 C 15,0 C 66 % 1020,5 hPa 0,0 l/m 14,0 km/h (3 Bft) O-NO 70 3 min 2,8 UV-I 509 W/m 7,8 C 10,5 C 20,9 km/h (4 Bft)
03.06.2023 09:45 14,2 C 15,0 C 66 % 1020,6 hPa 0,0 l/m 14,4 km/h (3 Bft) NO 52 3 min 2,9 UV-I 503 W/m 7,9 C 10,4 C 20,9 km/h (4 Bft)
03.06.2023 09:48 14,2 C 15,0 C 66 % 1020,6 hPa 0,0 l/m 12,5 km/h (3 Bft) O-NO 59 3 min 3,0 UV-I 496 W/m 7,9 C 11,1 C 19,3 km/h (3 Bft)
03.06.2023 09:51 14,2 C 15,0 C 66 % 1020,5 hPa 0,0 l/m 14,3 km/h (3 Bft) O-NO 74 3 min 3,0 UV-I 491 W/m 7,9 C 10,5 C 20,9 km/h (4 Bft)
03.06.2023 09:54 14,2 C 15,0 C 67 % 1020,5 hPa 0,0 l/m 12,0 km/h (2 Bft) NO 45 3 min 3,1 UV-I 485 W/m 8,2 C 11,4 C 16,1 km/h (3 Bft)
03.06.2023 09:57 14,6 C 15,6 C 66 % 1020,5 hPa 0,0 l/m 12,8 km/h (3 Bft) O-NO 63 3 min 3,1 UV-I 478 W/m 8,3 C 11,5 C 22,5 km/h (4 Bft)
03.06.2023 10:00 14,5 C 16,1 C 66 % 1020,5 hPa 0,0 l/m 14,8 km/h (3 Bft) O-NO 63 3 min 3,2 UV-I 474 W/m 8,2 C 10,7 C 20,9 km/h (4 Bft)
03.06.2023 10:03 14,6 C 16,1 C 66 % 1020,6 hPa 0,0 l/m 14,5 km/h (3 Bft) O-NO 76 3 min 3,3 UV-I 472 W/m 8,3 C 10,9 C 20,9 km/h (4 Bft)
03.06.2023 10:06 14,6 C 16,7 C 65 % 1020,6 hPa 0,0 l/m 14,8 km/h (3 Bft) NO 51 3 min 3,3 UV-I 473 W/m 8,1 C 10,8 C 22,5 km/h (4 Bft)
03.06.2023 10:09 14,6 C 16,1 C 65 % 1020,6 hPa 0,0 l/m 15,4 km/h (3 Bft) NO 55 3 min 3,4 UV-I 478 W/m 8,1 C 10,6 C 25,7 km/h (4 Bft)
03.06.2023 10:12 14,7 C 15,6 C 65 % 1020,7 hPa 0,0 l/m 15,5 km/h (3 Bft) O 84 3 min 3,5 UV-I 484 W/m 8,2 C 10,7 C 22,5 km/h (4 Bft)
03.06.2023 10:15 14,8 C 15,6 C 66 % 1020,7 hPa 0,0 l/m 13,8 km/h (3 Bft) NO 47 3 min 3,5 UV-I 495 W/m 8,5 C 11,4 C 22,5 km/h (4 Bft)
03.06.2023 10:18 15,0 C 16,1 C 64 % 1020,7 hPa 0,0 l/m 14,0 km/h (3 Bft) O-NO 66 3 min 3,6 UV-I 509 W/m 8,2 C 11,5 C 22,5 km/h (4 Bft)
03.06.2023 10:21 15,1 C 16,1 C 64 % 1020,6 hPa 0,0 l/m 14,2 km/h (3 Bft) N-NO 17 3 min 3,6 UV-I 526 W/m 8,3 C 11,6 C 22,5 km/h (4 Bft)
03.06.2023 10:24 15,2 C 16,7 C 64 % 1020,6 hPa 0,0 l/m 16,7 km/h (3 Bft) O-NO 73 3 min 3,7 UV-I 547 W/m 8,4 C 10,9 C 24,1 km/h (4 Bft)
03.06.2023 10:27 15,2 C 16,7 C 64 % 1020,7 hPa 0,0 l/m 16,4 km/h (3 Bft) O-NO 66 3 min 3,8 UV-I 569 W/m 8,4 C 11,0 C 24,1 km/h (4 Bft)
03.06.2023 10:30 15,3 C 17,2 C 64 % 1020,5 hPa 0,0 l/m 13,6 km/h (3 Bft) NO 55 3 min 3,8 UV-I 592 W/m 8,5 C 12,0 C 20,9 km/h (4 Bft)
03.06.2023 10:33 15,3 C 17,2 C 63 % 1020,6 hPa 0,0 l/m 14,5 km/h (3 Bft) O-NO 58 3 min 3,9 UV-I 615 W/m 8,3 C 11,7 C 22,5 km/h (4 Bft)
03.06.2023 10:36 15,3 C 17,8 C 63 % 1020,6 hPa 0,0 l/m 14,8 km/h (3 Bft) NO 43 3 min 4,0 UV-I 636 W/m 8,3 C 11,6 C 24,1 km/h (4 Bft)
03.06.2023 10:39 15,7 C 18,3 C 64 % 1020,6 hPa 0,0 l/m 15,2 km/h (3 Bft) N-NO 22 3 min 4,0 UV-I 657 W/m 8,9 C 12,0 C 20,9 km/h (4 Bft)
03.06.2023 10:42 15,7 C 18,9 C 63 % 1020,7 hPa 0,0 l/m 14,6 km/h (3 Bft) O-NO 60 3 min 4,1 UV-I 670 W/m 8,7 C 12,2 C 20,9 km/h (4 Bft)
03.06.2023 10:45 15,7 C 18,9 C 62 % 1020,6 hPa 0,0 l/m 13,6 km/h (3 Bft) NO 34 3 min 4,1 UV-I 681 W/m 8,4 C 12,5 C 22,5 km/h (4 Bft)
03.06.2023 10:48 15,8 C 18,9 C 64 % 1020,6 hPa 0,0 l/m 14,8 km/h (3 Bft) NO 56 3 min 4,2 UV-I 685 W/m 9,0 C 12,2 C 20,9 km/h (4 Bft)
03.06.2023 10:52 16,1 C 18,9 C 62 % 1020,6 hPa 0,0 l/m 12,1 km/h (2 Bft) N-NO 31 4 min 4,3 UV-I 693 W/m 8,8 C 13,5 C 19,3 km/h (3 Bft)
03.06.2023 10:54 16,2 C 19,4 C 64 % 1020,6 hPa 0,0 l/m 11,0 km/h (2 Bft) O-NO 67 2 min 4,4 UV-I 700 W/m 9,4 C 14,0 C 17,7 km/h (3 Bft)
03.06.2023 10:57 16,3 C 20,6 C 62 % 1020,6 hPa 0,0 l/m 14,9 km/h (3 Bft) O-NO 61 3 min 4,4 UV-I 704 W/m 9,0 C 12,8 C 25,7 km/h (4 Bft)
03.06.2023 11:00 16,3 C 20,6 C 62 % 1020,6 hPa 0,0 l/m 14,9 km/h (3 Bft) NO 51 3 min 4,5 UV-I 710 W/m 9,0 C 12,8 C 22,5 km/h (4 Bft)
03.06.2023 11:03 16,5 C 21,7 C 62 % 1020,6 hPa 0,0 l/m 13,8 km/h (3 Bft) NO 43 3 min 4,5 UV-I 717 W/m 9,2 C 13,4 C 20,9 km/h (4 Bft)
03.06.2023 11:06 16,4 C 21,7 C 62 % 1020,6 hPa 0,0 l/m 14,9 km/h (3 Bft) O-NO 63 3 min 4,6 UV-I 722 W/m 9,1 C 12,9 C 24,1 km/h (4 Bft)
03.06.2023 11:09 16,4 C 21,7 C 60 % 1020,8 hPa 0,0 l/m 17,6 km/h (3 Bft) NO 46 3 min 4,7 UV-I 729 W/m 8,6 C 12,2 C 24,1 km/h (4 Bft)
03.06.2023 11:12 16,4 C 21,7 C 61 % 1020,6 hPa 0,0 l/m 11,8 km/h (2 Bft) NO 39 3 min 4,7 UV-I 733 W/m 8,9 C 14,0 C 19,3 km/h (3 Bft)
03.06.2023 11:15 16,8 C 22,2 C 60 % 1020,6 hPa 0,0 l/m 14,1 km/h (3 Bft) O-NO 77 3 min 4,8 UV-I 739 W/m 9,0 C 13,6 C 22,5 km/h (4 Bft)
03.06.2023 11:18 16,7 C 21,7 C 59 % 1020,7 hPa 0,0 l/m 15,5 km/h (3 Bft) O-NO 63 3 min 4,9 UV-I 746 W/m 8,6 C 13,1 C 24,1 km/h (4 Bft)
03.06.2023 11:21 16,9 C 21,7 C 62 % 1020,7 hPa 0,0 l/m 12,2 km/h (2 Bft) O-NO 61 3 min 4,9 UV-I 752 W/m 9,6 C 14,4 C 19,3 km/h (3 Bft)
03.06.2023 11:24 17,3 C 22,8 C 60 % 1020,7 hPa 0,0 l/m 13,0 km/h (3 Bft) NO 46 3 min 5,0 UV-I 756 W/m 9,5 C 14,6 C 25,7 km/h (4 Bft)
03.06.2023 11:27 17,1 C 22,2 C 59 % 1020,7 hPa 0,0 l/m 15,5 km/h (3 Bft) O 83 3 min 5,0 UV-I 761 W/m 9,0 C 13,6 C 25,7 km/h (4 Bft)
03.06.2023 11:30 17,1 C 22,8 C 58 % 1020,8 hPa 0,0 l/m 16,5 km/h (3 Bft) NO 43 3 min 5,1 UV-I 767 W/m 8,8 C 13,3 C 25,7 km/h (4 Bft)
03.06.2023 11:33 17,1 C 22,8 C 58 % 1020,8 hPa 0,0 l/m 15,1 km/h (3 Bft) NO 39 3 min 5,1 UV-I 771 W/m 8,8 C 13,7 C 20,9 km/h (4 Bft)
03.06.2023 11:36 17,1 C 23,3 C 58 % 1020,7 hPa 0,0 l/m 19,5 km/h (3 Bft) N-NO 24 3 min 5,2 UV-I 775 W/m 8,8 C 12,6 C 29,0 km/h (5 Bft)
03.06.2023 11:39 17,1 C 22,8 C 57 % 1020,7 hPa 0,0 l/m 19,5 km/h (3 Bft) NO 47 3 min 5,2 UV-I 780 W/m 8,5 C 12,6 C 27,4 km/h (4 Bft)
03.06.2023 11:42 17,1 C 22,8 C 57 % 1020,7 hPa 0,0 l/m 19,1 km/h (3 Bft) N-NO 28 3 min 5,3 UV-I 786 W/m 8,5 C 12,7 C 25,7 km/h (4 Bft)
03.06.2023 11:45 17,3 C 22,8 C 58 % 1020,7 hPa 0,0 l/m 18,1 km/h (3 Bft) NO 38 3 min 5,4 UV-I 792 W/m 9,0 C 13,2 C 27,4 km/h (4 Bft)
03.06.2023 11:48 17,3 C 23,3 C 60 % 1020,7 hPa 0,0 l/m 16,9 km/h (3 Bft) NO 52 3 min 5,4 UV-I 795 W/m 9,5 C 13,5 C 24,1 km/h (4 Bft)
03.06.2023 11:51 17,3 C 23,3 C 57 % 1020,6 hPa 0,0 l/m 17,7 km/h (3 Bft) NO 55 3 min 5,5 UV-I 799 W/m 8,7 C 13,3 C 25,7 km/h (4 Bft)
03.06.2023 11:54 17,3 C 23,3 C 58 % 1020,6 hPa 0,0 l/m 16,7 km/h (3 Bft) NO 37 3 min 5,5 UV-I 802 W/m 9,0 C 13,5 C 25,7 km/h (4 Bft)
03.06.2023 11:57 17,4 C 23,9 C 58 % 1020,8 hPa 0,0 l/m 14,1 km/h (3 Bft) O-NO 61 3 min 5,6 UV-I 806 W/m 9,1 C 14,4 C 22,5 km/h (4 Bft)
03.06.2023 12:00 17,8 C 23,3 C 57 % 1020,7 hPa 0,0 l/m 15,1 km/h (3 Bft) N-NO 16 3 min 5,6 UV-I 810 W/m 9,2 C 14,6 C 22,5 km/h (4 Bft)
03.06.2023 12:03 17,7 C 23,9 C 56 % 1020,7 hPa 0,0 l/m 19,0 km/h (3 Bft) O-NO 61 3 min 5,6 UV-I 801 W/m 8,8 C 13,5 C 30,6 km/h (5 Bft)
03.06.2023 12:06 17,7 C 23,3 C 57 % 1020,7 hPa 0,0 l/m 21,9 km/h (4 Bft) N-NO 29 3 min 5,7 UV-I 822 W/m 9,1 C 12,8 C 33,8 km/h (5 Bft)
03.06.2023 12:09 17,6 C 23,9 C 56 % 1020,7 hPa 0,0 l/m 20,2 km/h (4 Bft) NO 49 3 min 5,7 UV-I 821 W/m 8,7 C 13,1 C 30,6 km/h (5 Bft)
03.06.2023 12:12 17,5 C 23,3 C 57 % 1020,8 hPa 0,0 l/m 21,8 km/h (4 Bft) O-NO 57 3 min 5,8 UV-I 826 W/m 8,9 C 12,6 C 33,8 km/h (5 Bft)
03.06.2023 12:15 17,3 C 23,3 C 56 % 1020,7 hPa 0,0 l/m 17,7 km/h (3 Bft) O-NO 60 3 min 5,8 UV-I 832 W/m 8,4 C 13,3 C 27,4 km/h (4 Bft)
03.06.2023 12:18 17,4 C 23,3 C 58 % 1020,5 hPa 0,0 l/m 22,7 km/h (4 Bft) N-NO 31 3 min 5,8 UV-I 833 W/m 9,1 C 12,3 C 30,6 km/h (5 Bft)
03.06.2023 12:21 17,5 C 23,3 C 55 % 1020,7 hPa 0,0 l/m 19,5 km/h (3 Bft) O-NO 74 3 min 5,8 UV-I 832 W/m 8,4 C 13,1 C 29,0 km/h (5 Bft)
03.06.2023 12:24 17,6 C 23,3 C 57 % 1020,6 hPa 0,0 l/m 15,0 km/h (3 Bft) NO 42 3 min 5,9 UV-I 835 W/m 9,0 C 14,3 C 24,1 km/h (4 Bft)
03.06.2023 12:27 17,7 C 23,9 C 56 % 1020,6 hPa 0,0 l/m 14,6 km/h (3 Bft) NO 46 3 min 5,9 UV-I 842 W/m 8,8 C 14,6 C 29,0 km/h (5 Bft)
03.06.2023 12:30 17,9 C 24,4 C 56 % 1020,6 hPa 0,0 l/m 15,9 km/h (3 Bft) NO 38 3 min 6,0 UV-I 846 W/m 9,0 C 14,5 C 30,6 km/h (5 Bft)
03.06.2023 12:33 17,9 C 24,4 C 55 % 1020,7 hPa 0,0 l/m 19,1 km/h (3 Bft) N-NO 24 3 min 6,0 UV-I 848 W/m 8,7 C 13,7 C 27,4 km/h (4 Bft)
03.06.2023 12:36 18,1 C 24,4 C 56 % 1020,7 hPa 0,0 l/m 13,3 km/h (3 Bft) O-NO 61 3 min 6,0 UV-I 855 W/m 9,2 C 15,4 C 24,1 km/h (4 Bft)
03.06.2023 12:39 17,9 C 23,9 C 54 % 1020,6 hPa 0,0 l/m 16,4 km/h (3 Bft) O-NO 68 3 min 5,8 UV-I 862 W/m 8,5 C 14,3 C 25,7 km/h (4 Bft)
03.06.2023 12:42 17,9 C 24,4 C 54 % 1020,7 hPa 0,0 l/m 16,0 km/h (3 Bft) O-NO 59 3 min 6,1 UV-I 861 W/m 8,5 C 14,4 C 25,7 km/h (4 Bft)
03.06.2023 12:45 17,9 C 25,0 C 56 % 1020,5 hPa 0,0 l/m 13,6 km/h (3 Bft) NO 38 3 min 6,1 UV-I 862 W/m 9,0 C 15,1 C 25,7 km/h (4 Bft)
03.06.2023 12:48 18,2 C 25,0 C 55 % 1020,6 hPa 0,0 l/m 20,3 km/h (4 Bft) NO 34 3 min 6,2 UV-I 865 W/m 9,0 C 13,8 C 30,6 km/h (5 Bft)
03.06.2023 12:51 18,3 C 25,0 C 56 % 1020,7 hPa 0,0 l/m 15,3 km/h (3 Bft) NO 56 3 min 6,2 UV-I 864 W/m 9,4 C 15,1 C 25,7 km/h (4 Bft)
03.06.2023 12:54 18,3 C 25,6 C 54 % 1020,7 hPa 0,0 l/m 16,3 km/h (3 Bft) NO 46 3 min 6,2 UV-I 874 W/m 8,8 C 14,9 C 25,7 km/h (4 Bft)
03.06.2023 12:57 18,1 C 25,6 C 55 % 1020,7 hPa 0,0 l/m 14,5 km/h (3 Bft) NO 55 3 min 6,3 UV-I 874 W/m 8,9 C 15,1 C 20,9 km/h (4 Bft)
03.06.2023 13:00 18,1 C 25,0 C 55 % 1020,7 hPa 0,0 l/m 21,6 km/h (4 Bft) O-NO 67 3 min 6,3 UV-I 874 W/m 8,9 C 13,4 C 32,2 km/h (5 Bft)
03.06.2023 13:03 17,8 C 25,6 C 56 % 1020,6 hPa 0,0 l/m 13,4 km/h (3 Bft) O-NO 65 3 min 6,3 UV-I 885 W/m 8,9 C 15,1 C 29,0 km/h (5 Bft)
03.06.2023 13:06 18,2 C 26,1 C 56 % 1020,6 hPa 0,0 l/m 9,7 km/h (2 Bft) N-NO 19 3 min 6,3 UV-I 874 W/m 9,3 C 16,8 C 20,9 km/h (4 Bft)
03.06.2023 13:09 18,4 C 27,2 C 54 % 1020,6 hPa 0,0 l/m 10,1 km/h (2 Bft) NO 52 3 min 6,3 UV-I 876 W/m 8,9 C 16,8 C 20,9 km/h (4 Bft)
03.06.2023 13:12 18,6 C 27,2 C 54 % 1020,6 hPa 0,0 l/m 17,0 km/h (3 Bft) NO 40 3 min 6,4 UV-I 878 W/m 9,1 C 15,1 C 27,4 km/h (4 Bft)
03.06.2023 13:15 18,3 C 27,2 C 54 % 1020,6 hPa 0,0 l/m 13,1 km/h (3 Bft) O-SO 109 3 min 6,4 UV-I 886 W/m 8,8 C 15,7 C 24,1 km/h (4 Bft)
03.06.2023 13:18 18,2 C 27,2 C 55 % 1020,6 hPa 0,0 l/m 8,8 km/h (2 Bft) O 86 3 min 5,3 UV-I 926 W/m 9,0 C 17,1 C 17,7 km/h (3 Bft)
03.06.2023 13:21 18,5 C 26,7 C 55 % 1020,4 hPa 0,0 l/m 14,0 km/h (3 Bft) NO 55 3 min 6,2 UV-I 938 W/m 9,3 C 15,7 C 30,6 km/h (5 Bft)
03.06.2023 13:24 18,6 C 25,6 C 55 % 1020,5 hPa 0,0 l/m 19,5 km/h (3 Bft) NO 44 3 min 6,5 UV-I 891 W/m 9,4 C 14,5 C 32,2 km/h (5 Bft)
03.06.2023 13:27 18,6 C 26,1 C 54 % 1020,6 hPa 0,0 l/m 20,1 km/h (4 Bft) NO 43 3 min 6,5 UV-I 905 W/m 9,1 C 14,4 C 27,4 km/h (4 Bft)
03.06.2023 13:30 18,7 C 27,2 C 55 % 1020,6 hPa 0,0 l/m 14,8 km/h (3 Bft) NO 40 3 min 6,5 UV-I 911 W/m 9,5 C 15,7 C 25,7 km/h (4 Bft)
03.06.2023 13:33 18,8 C 27,8 C 56 % 1020,5 hPa 0,0 l/m 11,1 km/h (2 Bft) O-NO 65 3 min 6,5 UV-I 930 W/m 9,8 C 16,9 C 17,7 km/h (3 Bft)
03.06.2023 13:36 18,8 C 27,2 C 53 % 1020,5 hPa 0,0 l/m 20,0 km/h (4 Bft) O-NO 76 3 min 6,7 UV-I 951 W/m 9,0 C 14,7 C 27,4 km/h (4 Bft)
03.06.2023 13:39 18,6 C 26,7 C 54 % 1020,5 hPa 0,0 l/m 22,3 km/h (4 Bft) O-NO 69 3 min 6,6 UV-I 950 W/m 9,1 C 14,0 C 30,6 km/h (5 Bft)
03.06.2023 13:42 18,9 C 28,3 C 54 % 1020,5 hPa 0,0 l/m 15,1 km/h (3 Bft) O-NO 74 3 min 6,7 UV-I 957 W/m 9,4 C 15,9 C 22,5 km/h (4 Bft)
03.06.2023 13:45 19,1 C 28,9 C 56 % 1020,5 hPa 0,0 l/m 13,1 km/h (3 Bft) N-NO 32 3 min 6,7 UV-I 966 W/m 10,1 C 16,7 C 33,8 km/h (5 Bft)
03.06.2023 13:48 19,4 C 27,8 C 54 % 1020,5 hPa 0,0 l/m 19,0 km/h (3 Bft) NO 39 3 min 6,7 UV-I 956 W/m 9,8 C 15,6 C 33,8 km/h (5 Bft)
03.06.2023 13:51 19,4 C 27,2 C 55 % 1020,5 hPa 0,0 l/m 14,9 km/h (3 Bft) NO 35 3 min 6,5 UV-I 912 W/m 10,1 C 16,5 C 25,7 km/h (4 Bft)
03.06.2023 13:54 19,1 C 27,8 C 52 % 1020,5 hPa 0,0 l/m 8,2 km/h (2 Bft) N-NO 21 3 min 6,6 UV-I 912 W/m 9,0 C 18,3 C 17,7 km/h (3 Bft)
03.06.2023 13:57 18,9 C 26,7 C 55 % 1020,5 hPa 0,0 l/m 17,6 km/h (3 Bft) N-NO 17 3 min 4,5 UV-I 674 W/m 9,7 C 15,3 C 32,2 km/h (5 Bft)
03.06.2023 14:00 18,4 C 25,0 C 55 % 1020,6 hPa 0,0 l/m 14,5 km/h (3 Bft) O 94 0 min 4,8 UV-I 323 W/m 9,2 C 15,4 C 27,4 km/h (4 Bft)
03.06.2023 14:03 18,8 C 26,1 C 56 % 1020,6 hPa 0,0 l/m 9,6 km/h (2 Bft) O-NO 66 3 min 6,4 UV-I 582 W/m 9,8 C 17,5 C 25,7 km/h (4 Bft)
03.06.2023 14:06 18,9 C 25,6 C 53 % 1020,6 hPa 0,0 l/m 21,5 km/h (4 Bft) NO 51 3 min 5,8 UV-I 942 W/m 9,1 C 14,5 C 32,2 km/h (5 Bft)
03.06.2023 14:09 18,9 C 26,1 C 53 % 1020,7 hPa 0,0 l/m 16,5 km/h (3 Bft) O-NO 68 3 min 6,5 UV-I 936 W/m 9,1 C 15,5 C 22,5 km/h (4 Bft)
03.06.2023 14:12 19,1 C 26,7 C 55 % 1020,5 hPa 0,0 l/m 14,1 km/h (3 Bft) NO 49 3 min 6,6 UV-I 930 W/m 9,8 C 16,4 C 20,9 km/h (4 Bft)
03.06.2023 14:15 19,4 C 27,8 C 54 % 1020,4 hPa 0,0 l/m 13,8 km/h (3 Bft) O 81 3 min 6,6 UV-I 949 W/m 9,8 C 16,8 C 25,7 km/h (4 Bft)
03.06.2023 14:18 19,4 C 27,2 C 52 % 1020,4 hPa 0,0 l/m 15,2 km/h (3 Bft) O-NO 75 3 min 6,7 UV-I 976 W/m 9,3 C 16,5 C 20,9 km/h (4 Bft)
03.06.2023 14:21 19,7 C 27,8 C 54 % 1020,4 hPa 0,0 l/m 15,8 km/h (3 Bft) O-NO 71 3 min 6,7 UV-I 986 W/m 10,1 C 16,7 C 27,4 km/h (4 Bft)
03.06.2023 14:24 19,6 C 27,8 C 52 % 1020,4 hPa 0,0 l/m 13,9 km/h (3 Bft) O-NO 59 3 min 6,6 UV-I 956 W/m 9,5 C 17,0 C 22,5 km/h (4 Bft)
03.06.2023 14:27 19,8 C 28,9 C 58 % 1020,4 hPa 0,0 l/m 13,2 km/h (3 Bft) N-NO 19 3 min 6,6 UV-I 989 W/m 11,3 C 17,5 C 24,1 km/h (4 Bft)
03.06.2023 14:30 19,6 C 27,2 C 54 % 1020,2 hPa 0,0 l/m 16,2 km/h (3 Bft) N 355 3 min 4,2 UV-I 1023 W/m 10,0 C 16,5 C 27,4 km/h (4 Bft)
03.06.2023 14:33 19,1 C 25,0 C 57 % 1020,3 hPa 0,0 l/m 10,3 km/h (2 Bft) O-NO 71 3 min 3,9 UV-I 549 W/m 10,4 C 17,5 C 20,9 km/h (4 Bft)
03.06.2023 14:36 19,4 C 26,7 C 53 % 1020,3 hPa 0,0 l/m 13,1 km/h (3 Bft) O-NO 76 3 min 6,3 UV-I 893 W/m 9,6 C 17,0 C 25,7 km/h (4 Bft)
03.06.2023 14:39 19,9 C 29,4 C 57 % 1020,3 hPa 0,0 l/m 7,8 km/h (2 Bft) N-NO 17 3 min 6,5 UV-I 959 W/m 11,1 C 19,3 C 17,7 km/h (3 Bft)
03.06.2023 14:42 20,2 C 27,2 C 52 % 1020,3 hPa 0,0 l/m 18,4 km/h (3 Bft) N-NO 30 3 min 5,5 UV-I 956 W/m 10,0 C 16,8 C 24,1 km/h (4 Bft)
03.06.2023 14:45 19,3 C 27,2 C 54 % 1020,3 hPa 0,0 l/m 12,2 km/h (2 Bft) NO 43 0 min 4,8 UV-I 445 W/m 9,8 C 17,2 C 22,5 km/h (4 Bft)
03.06.2023 14:48 19,5 C 27,8 C 55 % 1020,3 hPa 0,0 l/m 12,0 km/h (2 Bft) N-NO 24 3 min 5,2 UV-I 986 W/m 10,2 C 17,5 C 25,7 km/h (4 Bft)
03.06.2023 14:51 19,6 C 28,3 C 53 % 1020,3 hPa 0,0 l/m 14,4 km/h (3 Bft) O 82 3 min 6,0 UV-I 1021 W/m 9,8 C 16,9 C 25,7 km/h (4 Bft)
03.06.2023 14:54 19,7 C 27,8 C 51 % 1020,3 hPa 0,0 l/m 11,4 km/h (2 Bft) O-NO 63 3 min 5,9 UV-I 982 W/m 9,3 C 17,9 C 20,9 km/h (4 Bft)
03.06.2023 14:57 19,6 C 28,3 C 52 % 1020,3 hPa 0,0 l/m 12,4 km/h (3 Bft) O-NO 61 3 min 6,3 UV-I 957 W/m 9,5 C 17,5 C 19,3 km/h (3 Bft)
03.06.2023 15:00 19,8 C 28,9 C 54 % 1020,4 hPa 0,0 l/m 11,9 km/h (2 Bft) N 360 3 min 6,2 UV-I 981 W/m 10,2 C 17,8 C 19,3 km/h (3 Bft)
03.06.2023 15:03 19,6 C 26,1 C 51 % 1020,3 hPa 0,0 l/m 19,6 km/h (3 Bft) N-NO 29 3 min 4,6 UV-I 1000 W/m 9,2 C 15,8 C 27,4 km/h (4 Bft)
03.06.2023 15:06 19,0 C 24,4 C 54 % 1020,4 hPa 0,0 l/m 10,1 km/h (2 Bft) NO 44 3 min 4,1 UV-I 552 W/m 9,5 C 17,5 C 22,5 km/h (4 Bft)
03.06.2023 15:09 19,5 C 27,8 C 54 % 1020,3 hPa 0,0 l/m 12,6 km/h (3 Bft) NO 48 3 min 6,0 UV-I 920 W/m 9,9 C 17,3 C 19,3 km/h (3 Bft)
03.06.2023 15:12 20,1 C 28,3 C 50 % 1020,4 hPa 0,0 l/m 14,3 km/h (3 Bft) NO 38 3 min 5,9 UV-I 917 W/m 9,3 C 17,5 C 20,9 km/h (4 Bft)
03.06.2023 15:15 19,8 C 27,2 C 51 % 1020,3 hPa 0,0 l/m 10,2 km/h (2 Bft) N-NO 28 3 min 4,3 UV-I 958 W/m 9,4 C 18,4 C 19,3 km/h (3 Bft)
03.06.2023 15:18 19,6 C 25,0 C 53 % 1020,4 hPa 0,0 l/m 14,0 km/h (3 Bft) N-NO 25 3 min 4,1 UV-I 712 W/m 9,8 C 17,0 C 19,3 km/h (3 Bft)
03.06.2023 15:21 19,3 C 23,3 C 51 % 1020,3 hPa 0,0 l/m 16,4 km/h (3 Bft) O-NO 67 0 min 3,7 UV-I 303 W/m 8,9 C 16,1 C 22,5 km/h (4 Bft)
03.06.2023 15:24 19,1 C 23,9 C 52 % 1020,3 hPa 0,0 l/m 17,7 km/h (3 Bft) NO 51 3 min 4,4 UV-I 556 W/m 9,0 C 15,5 C 24,1 km/h (4 Bft)
03.06.2023 15:27 19,4 C 25,6 C 52 % 1020,3 hPa 0,0 l/m 13,6 km/h (3 Bft) NO 53 3 min 5,3 UV-I 965 W/m 9,3 C 16,9 C 20,9 km/h (4 Bft)
03.06.2023 15:30 19,4 C 25,6 C 56 % 1020,3 hPa 0,0 l/m 10,7 km/h (2 Bft) O-NO 69 0 min 4,3 UV-I 389 W/m 10,4 C 17,7 C 16,1 km/h (3 Bft)
03.06.2023 15:33 19,6 C 27,2 C 55 % 1020,3 hPa 0,0 l/m 8,7 km/h (2 Bft) NO 38 3 min 5,7 UV-I 908 W/m 10,3 C 18,7 C 19,3 km/h (3 Bft)
03.06.2023 15:36 19,8 C 27,8 C 49 % 1020,3 hPa 0,0 l/m 13,6 km/h (3 Bft) NO 46 3 min 5,6 UV-I 885 W/m 8,8 C 17,4 C 22,5 km/h (4 Bft)
03.06.2023 15:39 20,0 C 28,3 C 48 % 1020,3 hPa 0,0 l/m 11,4 km/h (2 Bft) O-NO 65 3 min 5,6 UV-I 885 W/m 8,7 C 18,2 C 17,7 km/h (3 Bft)
03.06.2023 15:42 20,1 C 29,4 C 53 % 1020,1 hPa 0,0 l/m 9,9 km/h (2 Bft) N 355 3 min 5,1 UV-I 893 W/m 10,2 C 18,8 C 16,1 km/h (3 Bft)
03.06.2023 15:45 20,2 C 28,3 C 48 % 1020,1 hPa 0,0 l/m 18,4 km/h (3 Bft) N 5 3 min 4,2 UV-I 780 W/m 8,8 C 16,8 C 27,4 km/h (4 Bft)
03.06.2023 15:48 19,8 C 27,8 C 52 % 1020,1 hPa 0,0 l/m 12,6 km/h (3 Bft) N 5 3 min 4,3 UV-I 525 W/m 9,7 C 17,6 C 24,1 km/h (4 Bft)
03.06.2023 15:51 19,8 C 27,2 C 52 % 1020,1 hPa 0,0 l/m 13,0 km/h (3 Bft) NO 46 3 min 4,3 UV-I 933 W/m 9,7 C 17,5 C 17,7 km/h (3 Bft)
03.06.2023 15:54 20,1 C 26,7 C 52 % 1020,0 hPa 0,0 l/m 11,4 km/h (2 Bft) N-NO 20 3 min 3,7 UV-I 858 W/m 9,9 C 18,3 C 17,7 km/h (3 Bft)
03.06.2023 15:57 19,4 C 22,8 C 51 % 1020,1 hPa 0,0 l/m 18,3 km/h (3 Bft) NO 39 0 min 2,6 UV-I 234 W/m 9,0 C 15,8 C 27,4 km/h (4 Bft)
03.06.2023 16:00 19,3 C 23,9 C 51 % 1020,1 hPa 0,0 l/m 17,6 km/h (3 Bft) N-NO 17 3 min 3,5 UV-I 623 W/m 8,9 C 15,8 C 27,4 km/h (4 Bft)
03.06.2023 16:03 19,3 C 24,4 C 53 % 1020,1 hPa 0,0 l/m 9,9 km/h (2 Bft) N-NO 27 0 min 4,0 UV-I 256 W/m 9,5 C 17,9 C 19,3 km/h (3 Bft)
03.06.2023 16:06 19,8 C 26,1 C 50 % 1019,9 hPa 0,0 l/m 20,9 km/h (4 Bft) NO 49 3 min 4,8 UV-I 884 W/m 9,1 C 15,8 C 30,6 km/h (5 Bft)
03.06.2023 16:09 19,3 C 25,0 C 50 % 1020,0 hPa 0,0 l/m 14,4 km/h (3 Bft) O-NO 58 3 min 3,9 UV-I 520 W/m 8,6 C 16,6 C 29,0 km/h (5 Bft)
03.06.2023 16:12 19,6 C 25,0 C 50 % 1020,0 hPa 0,0 l/m 10,6 km/h (2 Bft) NO 44 3 min 3,9 UV-I 846 W/m 8,9 C 18,0 C 19,3 km/h (3 Bft)
03.06.2023 16:15 19,7 C 26,1 C 48 % 1020,0 hPa 0,0 l/m 11,1 km/h (2 Bft) O 100 3 min 4,6 UV-I 807 W/m 8,4 C 18,0 C 17,7 km/h (3 Bft)
03.06.2023 16:18 19,7 C 26,1 C 49 % 1020,0 hPa 0,0 l/m 8,2 km/h (2 Bft) N 5 3 min 3,5 UV-I 749 W/m 8,7 C 19,0 C 12,9 km/h (3 Bft)
03.06.2023 16:21 19,6 C 26,1 C 53 % 1020,0 hPa 0,0 l/m 14,6 km/h (3 Bft) N-NO 23 3 min 3,6 UV-I 676 W/m 9,8 C 16,9 C 25,7 km/h (4 Bft)
03.06.2023 16:24 20,0 C 28,3 C 52 % 1020,0 hPa 0,0 l/m 14,4 km/h (3 Bft) N-NO 17 3 min 4,7 UV-I 819 W/m 9,8 C 17,4 C 19,3 km/h (3 Bft)
03.06.2023 16:27 20,1 C 27,8 C 51 % 1019,9 hPa 0,0 l/m 11,3 km/h (2 Bft) N-NO 18 3 min 3,9 UV-I 814 W/m 9,6 C 18,3 C 17,7 km/h (3 Bft)
03.06.2023 16:30 19,7 C 25,6 C 49 % 1019,9 hPa 0,0 l/m 18,2 km/h (3 Bft) NO 46 3 min 2,6 UV-I 419 W/m 8,7 C 16,2 C 25,7 km/h (4 Bft)
03.06.2023 16:33 19,0 C 21,1 C 50 % 1020,0 hPa 0,0 l/m 19,4 km/h (3 Bft) NO 38 0 min 2,2 UV-I 203 W/m 8,3 C 15,0 C 27,4 km/h (4 Bft)
03.06.2023 16:36 18,7 C 20,0 C 52 % 1020,0 hPa 0,0 l/m 18,1 km/h (3 Bft) N-NO 32 0 min 2,3 UV-I 196 W/m 8,6 C 14,9 C 30,6 km/h (5 Bft)
03.06.2023 16:39 18,9 C 22,2 C 52 % 1020,0 hPa 0,0 l/m 14,1 km/h (3 Bft) N 9 3 min 3,9 UV-I 537 W/m 8,8 C 16,2 C 24,1 km/h (4 Bft)
03.06.2023 16:42 19,5 C 26,7 C 53 % 1019,9 hPa 0,0 l/m 13,5 km/h (3 Bft) N-NO 30 3 min 4,1 UV-I 713 W/m 9,7 C 17,0 C 20,9 km/h (4 Bft)
03.06.2023 16:45 20,0 C 27,8 C 51 % 1019,9 hPa 0,0 l/m 18,1 km/h (3 Bft) NO 38 3 min 4,2 UV-I 755 W/m 9,6 C 16,6 C 24,1 km/h (4 Bft)
03.06.2023 16:48 20,1 C 27,2 C 49 % 1020,4 hPa 0,0 l/m 15,7 km/h (3 Bft) NO 36 3 min 3,9 UV-I 789 W/m 9,0 C 17,2 C 22,5 km/h (4 Bft)
03.06.2023 16:51 19,6 C 23,3 C 48 % 1019,8 hPa 0,0 l/m 18,1 km/h (3 Bft) O-NO 66 0 min 2,2 UV-I 237 W/m 8,3 C 16,1 C 25,7 km/h (4 Bft)
03.06.2023 16:54 18,8 C 20,6 C 50 % 1019,9 hPa 0,0 l/m 14,3 km/h (3 Bft) NO 35 0 min 2,2 UV-I 169 W/m 8,2 C 16,0 C 20,9 km/h (4 Bft)
03.06.2023 16:57 18,9 C 22,2 C 50 % 1019,8 hPa 0,0 l/m 12,5 km/h (3 Bft) O-NO 67 3 min 3,5 UV-I 457 W/m 8,2 C 16,6 C 17,7 km/h (3 Bft)
03.06.2023 17:00 19,8 C 27,2 C 53 % 1019,8 hPa 0,0 l/m 10,1 km/h (2 Bft) N 9 3 min 3,9 UV-I 698 W/m 9,9 C 18,4 C 17,7 km/h (3 Bft)
03.06.2023 17:03 19,9 C 28,3 C 51 % 1019,8 hPa 0,0 l/m 13,3 km/h (3 Bft) N 350 3 min 3,6 UV-I 680 W/m 9,5 C 17,6 C 19,3 km/h (3 Bft)
03.06.2023 17:06 19,9 C 28,3 C 52 % 1019,8 hPa 0,0 l/m 15,9 km/h (3 Bft) N-NO 18 3 min 3,6 UV-I 659 W/m 9,7 C 16,9 C 27,4 km/h (4 Bft)
03.06.2023 17:09 19,8 C 25,6 C 48 % 1019,9 hPa 0,0 l/m 17,5 km/h (3 Bft) N-NO 24 3 min 2,8 UV-I 653 W/m 8,5 C 16,4 C 25,7 km/h (4 Bft)
03.06.2023 17:12 19,7 C 26,7 C 48 % 1019,8 hPa 0,0 l/m 13,2 km/h (3 Bft) O-NO 69 3 min 3,6 UV-I 666 W/m 8,4 C 17,3 C 17,7 km/h (3 Bft)
03.06.2023 17:15 20,0 C 27,2 C 50 % 1019,8 hPa 0,0 l/m 15,0 km/h (3 Bft) N-NO 27 3 min 3,2 UV-I 686 W/m 9,3 C 17,2 C 22,5 km/h (4 Bft)
03.06.2023 17:18 19,6 C 24,4 C 48 % 1019,8 hPa 0,0 l/m 18,6 km/h (3 Bft) N-NO 23 3 min 2,7 UV-I 384 W/m 8,3 C 16,0 C 27,4 km/h (4 Bft)
03.06.2023 17:21 19,4 C 23,9 C 48 % 1019,9 hPa 0,0 l/m 12,3 km/h (3 Bft) N-NO 30 3 min 3,1 UV-I 669 W/m 8,1 C 17,3 C 27,4 km/h (4 Bft)
03.06.2023 17:24 19,4 C 23,9 C 49 % 1020,0 hPa 0,0 l/m 11,7 km/h (2 Bft) NO 46 3 min 2,0 UV-I 532 W/m 8,4 C 17,4 C 17,7 km/h (3 Bft)
03.06.2023 17:27 18,8 C 20,6 C 50 % 1019,9 hPa 0,0 l/m 14,7 km/h (3 Bft) N-NO 26 0 min 1,8 UV-I 104 W/m 8,2 C 15,9 C 20,9 km/h (4 Bft)
03.06.2023 17:30 18,9 C 23,3 C 50 % 1019,8 hPa 0,0 l/m 13,7 km/h (3 Bft) N-NO 24 3 min 3,1 UV-I 507 W/m 8,2 C 16,3 C 17,7 km/h (3 Bft)
03.06.2023 17:33 19,4 C 25,0 C 49 % 1019,8 hPa 0,0 l/m 13,9 km/h (3 Bft) N-NW 344 3 min 3,1 UV-I 578 W/m 8,4 C 16,8 C 20,9 km/h (4 Bft)
03.06.2023 17:36 19,7 C 25,6 C 50 % 1019,9 hPa 0,0 l/m 8,8 km/h (2 Bft) N-NO 28 3 min 3,0 UV-I 570 W/m 9,0 C 18,7 C 17,7 km/h (3 Bft)
03.06.2023 17:39 19,8 C 25,6 C 49 % 1019,8 hPa 0,0 l/m 16,7 km/h (3 Bft) N 355 3 min 3,0 UV-I 577 W/m 8,8 C 16,6 C 25,7 km/h (4 Bft)
03.06.2023 17:42 19,7 C 26,1 C 49 % 1019,8 hPa 0,0 l/m 12,6 km/h (3 Bft) N-NO 17 3 min 3,0 UV-I 579 W/m 8,7 C 17,5 C 22,5 km/h (4 Bft)
03.06.2023 17:45 19,8 C 26,1 C 48 % 1019,8 hPa 0,0 l/m 16,2 km/h (3 Bft) N-NO 14 3 min 2,9 UV-I 575 W/m 8,5 C 16,7 C 27,4 km/h (4 Bft)
03.06.2023 17:48 19,9 C 26,1 C 50 % 1019,9 hPa 0,0 l/m 15,9 km/h (3 Bft) N 10 3 min 2,8 UV-I 552 W/m 9,2 C 16,9 C 22,5 km/h (4 Bft)
03.06.2023 17:51 19,7 C 26,7 C 49 % 1019,8 hPa 0,0 l/m 14,9 km/h (3 Bft) N 355 3 min 2,7 UV-I 535 W/m 8,7 C 16,9 C 24,1 km/h (4 Bft)
03.06.2023 17:54 19,5 C 26,7 C 48 % 1019,7 hPa 0,0 l/m 17,3 km/h (3 Bft) N-NO 12 3 min 2,7 UV-I 522 W/m 8,2 C 16,1 C 27,4 km/h (4 Bft)
03.06.2023 17:57 19,3 C 25,6 C 48 % 1019,6 hPa 0,0 l/m 17,6 km/h (3 Bft) N-NW 338 3 min 2,6 UV-I 507 W/m 8,0 C 15,8 C 22,5 km/h (4 Bft)
03.06.2023 18:00 19,2 C 25,6 C 49 % 1019,8 hPa 0,0 l/m 16,6 km/h (3 Bft) N 360 3 min 2,5 UV-I 496 W/m 8,2 C 15,9 C 24,1 km/h (4 Bft)
03.06.2023 18:03 19,4 C 25,6 C 52 % 1019,7 hPa 0,0 l/m 9,8 km/h (2 Bft) NO 37 3 min 2,4 UV-I 487 W/m 9,3 C 18,0 C 16,1 km/h (3 Bft)
03.06.2023 18:06 19,7 C 25,6 C 48 % 1019,7 hPa 0,0 l/m 12,5 km/h (3 Bft) NO 36 3 min 2,4 UV-I 481 W/m 8,4 C 17,5 C 20,9 km/h (4 Bft)
03.06.2023 18:09 19,8 C 25,0 C 50 % 1019,6 hPa 0,0 l/m 11,0 km/h (2 Bft) N-NO 18 3 min 2,3 UV-I 474 W/m 9,1 C 18,1 C 19,3 km/h (3 Bft)
03.06.2023 18:12 19,9 C 25,0 C 51 % 1019,7 hPa 0,0 l/m 10,2 km/h (2 Bft) N-NO 17 3 min 2,3 UV-I 466 W/m 9,5 C 18,5 C 16,1 km/h (3 Bft)
03.06.2023 18:15 19,8 C 24,4 C 47 % 1019,6 hPa 0,0 l/m 13,8 km/h (3 Bft) N-NO 28 3 min 2,2 UV-I 459 W/m 8,2 C 17,3 C 22,5 km/h (4 Bft)
03.06.2023 18:18 19,6 C 23,3 C 47 % 1019,6 hPa 0,0 l/m 13,5 km/h (3 Bft) N-NW 342 3 min 2,2 UV-I 452 W/m 8,0 C 17,1 C 20,9 km/h (4 Bft)
03.06.2023 18:21 19,3 C 23,3 C 48 % 1019,6 hPa 0,0 l/m 17,5 km/h (3 Bft) NO 38 3 min 2,1 UV-I 442 W/m 8,0 C 15,8 C 25,7 km/h (4 Bft)
03.06.2023 18:24 19,3 C 22,8 C 47 % 1019,6 hPa 0,0 l/m 10,1 km/h (2 Bft) NO 50 3 min 2,1 UV-I 434 W/m 7,7 C 17,8 C 19,3 km/h (3 Bft)
03.06.2023 18:27 19,3 C 22,2 C 45 % 1019,5 hPa 0,0 l/m 15,5 km/h (3 Bft) N 9 3 min 2,0 UV-I 427 W/m 7,1 C 16,3 C 27,4 km/h (4 Bft)
03.06.2023 18:30 19,1 C 21,1 C 48 % 1019,6 hPa 0,0 l/m 19,1 km/h (3 Bft) N-NO 26 3 min 1,9 UV-I 418 W/m 7,8 C 15,2 C 27,4 km/h (4 Bft)
03.06.2023 18:33 19,1 C 20,6 C 47 % 1019,5 hPa 0,0 l/m 13,5 km/h (3 Bft) N-NO 26 3 min 1,9 UV-I 409 W/m 7,5 C 16,6 C 24,1 km/h (4 Bft)
03.06.2023 18:36 19,1 C 20,0 C 48 % 1019,6 hPa 0,0 l/m 13,2 km/h (3 Bft) N-NO 20 3 min 1,8 UV-I 401 W/m 7,8 C 16,6 C 19,3 km/h (3 Bft)
03.06.2023 18:39 19,2 C 20,0 C 48 % 1019,6 hPa 0,0 l/m 13,2 km/h (3 Bft) N-NO 25 3 min 1,8 UV-I 393 W/m 7,9 C 16,8 C 20,9 km/h (4 Bft)
03.06.2023 18:42 19,1 C 19,4 C 47 % 1019,6 hPa 0,0 l/m 12,2 km/h (2 Bft) NO 36 3 min 1,7 UV-I 384 W/m 7,5 C 16,9 C 19,3 km/h (3 Bft)
03.06.2023 18:45 19,1 C 19,4 C 46 % 1019,5 hPa 0,0 l/m 14,8 km/h (3 Bft) N-NO 32 3 min 1,7 UV-I 376 W/m 7,2 C 16,2 C 24,1 km/h (4 Bft)
03.06.2023 18:48 19,0 C 19,4 C 47 % 1019,6 hPa 0,0 l/m 13,0 km/h (3 Bft) N-NO 12 3 min 1,6 UV-I 368 W/m 7,4 C 16,6 C 22,5 km/h (4 Bft)
03.06.2023 18:51 18,9 C 19,4 C 47 % 1019,6 hPa 0,0 l/m 12,0 km/h (2 Bft) N-NO 24 3 min 1,6 UV-I 360 W/m 7,3 C 16,8 C 17,7 km/h (3 Bft)
03.06.2023 18:54 19,0 C 19,4 C 49 % 1019,6 hPa 0,0 l/m 10,8 km/h (2 Bft) NO 37 3 min 1,5 UV-I 351 W/m 8,0 C 17,3 C 17,7 km/h (3 Bft)
03.06.2023 18:57 19,0 C 20,0 C 47 % 1019,6 hPa 0,0 l/m 11,8 km/h (2 Bft) N-NO 26 3 min 1,5 UV-I 342 W/m 7,4 C 16,9 C 20,9 km/h (4 Bft)
03.06.2023 19:00 18,9 C 19,4 C 49 % 1019,7 hPa 0,0 l/m 12,2 km/h (2 Bft) N-NO 27 3 min 1,4 UV-I 334 W/m 7,9 C 16,7 C 17,7 km/h (3 Bft)
03.06.2023 19:03 18,9 C 19,4 C 47 % 1019,5 hPa 0,0 l/m 14,9 km/h (3 Bft) N-NO 28 3 min 1,4 UV-I 326 W/m 7,3 C 15,9 C 24,1 km/h (4 Bft)
03.06.2023 19:06 18,7 C 18,9 C 49 % 1019,6 hPa 0,0 l/m 14,2 km/h (3 Bft) NO 35 3 min 1,3 UV-I 318 W/m 7,8 C 15,9 C 22,5 km/h (4 Bft)
03.06.2023 19:09 18,7 C 18,9 C 48 % 1019,6 hPa 0,0 l/m 12,5 km/h (3 Bft) N-NO 21 3 min 1,3 UV-I 308 W/m 7,5 C 16,4 C 20,9 km/h (4 Bft)
03.06.2023 19:12 18,6 C 18,3 C 49 % 1019,6 hPa 0,0 l/m 14,1 km/h (3 Bft) N 5 3 min 1,2 UV-I 299 W/m 7,7 C 15,8 C 22,5 km/h (4 Bft)
03.06.2023 19:15 18,4 C 18,3 C 48 % 1019,6 hPa 0,0 l/m 14,4 km/h (3 Bft) N-NW 344 3 min 1,2 UV-I 292 W/m 7,2 C 15,5 C 20,9 km/h (4 Bft)
03.06.2023 19:18 18,4 C 18,3 C 50 % 1019,7 hPa 0,0 l/m 10,0 km/h (2 Bft) N-NW 343 3 min 1,1 UV-I 285 W/m 7,8 C 16,9 C 16,1 km/h (3 Bft)
03.06.2023 19:21 18,4 C 18,3 C 50 % 1019,6 hPa 0,0 l/m 11,5 km/h (2 Bft) N-NO 22 3 min 1,1 UV-I 277 W/m 7,8 C 16,4 C 17,7 km/h (3 Bft)
03.06.2023 19:24 18,3 C 17,8 C 49 % 1019,6 hPa 0,0 l/m 15,7 km/h (3 Bft) N-NO 30 3 min 1,0 UV-I 269 W/m 7,4 C 15,0 C 20,9 km/h (4 Bft)
03.06.2023 19:27 18,3 C 17,8 C 49 % 1019,7 hPa 0,0 l/m 11,3 km/h (2 Bft) N 11 3 min 1,0 UV-I 259 W/m 7,4 C 16,3 C 20,9 km/h (4 Bft)
03.06.2023 19:30 18,2 C 17,8 C 50 % 1019,6 hPa 0,0 l/m 12,0 km/h (2 Bft) N-NO 27 3 min 1,0 UV-I 251 W/m 7,6 C 16,0 C 20,9 km/h (4 Bft)
03.06.2023 19:33 18,1 C 17,2 C 49 % 1019,7 hPa 0,0 l/m 15,4 km/h (3 Bft) N-NW 348 3 min 0,9 UV-I 243 W/m 7,2 C 14,8 C 25,7 km/h (4 Bft)
03.06.2023 19:36 18,0 C 17,2 C 49 % 1019,6 hPa 0,0 l/m 13,2 km/h (3 Bft) N-NO 24 3 min 0,9 UV-I 235 W/m 7,1 C 15,3 C 20,9 km/h (4 Bft)
03.06.2023 19:39 17,9 C 16,7 C 51 % 1019,5 hPa 0,0 l/m 9,0 km/h (2 Bft) N-NO 17 3 min 0,8 UV-I 227 W/m 7,6 C 16,7 C 14,5 km/h (3 Bft)
03.06.2023 19:42 18,0 C 16,7 C 48 % 1019,5 hPa 0,0 l/m 14,5 km/h (3 Bft) N-NO 19 3 min 0,8 UV-I 220 W/m 6,8 C 15,0 C 20,9 km/h (4 Bft)
03.06.2023 19:45 17,9 C 16,7 C 49 % 1019,7 hPa 0,0 l/m 11,4 km/h (2 Bft) N-NO 30 3 min 0,8 UV-I 211 W/m 7,0 C 15,8 C 17,7 km/h (3 Bft)
03.06.2023 19:48 17,8 C 16,7 C 50 % 1019,6 hPa 0,0 l/m 12,3 km/h (3 Bft) N 5 3 min 0,7 UV-I 202 W/m 7,2 C 15,4 C 20,9 km/h (4 Bft)
03.06.2023 19:51 17,7 C 16,1 C 49 % 1019,6 hPa 0,0 l/m 15,8 km/h (3 Bft) N-NO 16 3 min 0,7 UV-I 194 W/m 6,9 C 14,2 C 22,5 km/h (4 Bft)
03.06.2023 19:54 17,7 C 16,1 C 47 % 1019,6 hPa 0,0 l/m 18,4 km/h (3 Bft) N 5 3 min 0,7 UV-I 185 W/m 6,2 C 13,6 C 24,1 km/h (4 Bft)
03.06.2023 19:57 17,6 C 16,1 C 48 % 1019,6 hPa 0,0 l/m 15,2 km/h (3 Bft) N 5 3 min 0,6 UV-I 175 W/m 6,5 C 14,3 C 24,1 km/h (4 Bft)
03.06.2023 20:00 17,5 C 15,6 C 48 % 1019,6 hPa 0,0 l/m 13,9 km/h (3 Bft) N 5 3 min 0,6 UV-I 166 W/m 6,4 C 14,5 C 24,1 km/h (4 Bft)
03.06.2023 20:03 17,4 C 15,6 C 49 % 1019,6 hPa 0,0 l/m 13,5 km/h (3 Bft) N 5 3 min 0,5 UV-I 157 W/m 6,6 C 14,5 C 19,3 km/h (3 Bft)
03.06.2023 20:06 17,3 C 15,6 C 49 % 1019,6 hPa 0,0 l/m 13,5 km/h (3 Bft) N-NO 14 3 min 0,5 UV-I 148 W/m 6,5 C 14,4 C 17,7 km/h (3 Bft)
03.06.2023 20:09 17,2 C 15,0 C 48 % 1019,8 hPa 0,0 l/m 16,1 km/h (3 Bft) N 360 3 min 0,5 UV-I 139 W/m 6,1 C 13,5 C 24,1 km/h (4 Bft)
03.06.2023 20:12 17,2 C 15,0 C 49 % 1019,7 hPa 0,0 l/m 14,3 km/h (3 Bft) N-NO 20 3 min 0,2 UV-I 130 W/m 6,4 C 14,1 C 22,5 km/h (4 Bft)
03.06.2023 20:15 17,1 C 15,0 C 49 % 1019,8 hPa 0,0 l/m 10,8 km/h (2 Bft) N 355 3 min 0,0 UV-I 121 W/m 6,3 C 15,1 C 20,9 km/h (4 Bft)
03.06.2023 20:18 16,9 C 14,4 C 49 % 1019,8 hPa 0,0 l/m 12,3 km/h (3 Bft) N-NW 336 3 min 0,0 UV-I 113 W/m 6,1 C 14,4 C 19,3 km/h (3 Bft)
03.06.2023 20:21 16,9 C 14,4 C 50 % 1019,8 hPa 0,0 l/m 16,5 km/h (3 Bft) N 355 3 min 0,0 UV-I 104 W/m 6,4 C 13,1 C 27,4 km/h (4 Bft)
03.06.2023 20:24 16,8 C 14,4 C 51 % 1019,8 hPa 0,0 l/m 18,9 km/h (3 Bft) N 349 3 min 0,0 UV-I 96 W/m 6,6 C 12,3 C 29,0 km/h (5 Bft)
03.06.2023 20:27 16,7 C 14,4 C 51 % 1019,9 hPa 0,0 l/m 16,9 km/h (3 Bft) N-NW 344 0 min 0,0 UV-I 76 W/m 6,5 C 12,7 C 24,1 km/h (4 Bft)
03.06.2023 20:30 16,6 C 14,4 C 51 % 1019,8 hPa 0,0 l/m 18,4 km/h (3 Bft) N 360 0 min 0,0 UV-I 33 W/m 6,4 C 12,2 C 25,7 km/h (4 Bft)
03.06.2023 20:33 16,4 C 13,9 C 52 % 1019,9 hPa 0,0 l/m 14,7 km/h (3 Bft) N 5 0 min 0,0 UV-I 29 W/m 6,5 C 13,0 C 19,3 km/h (3 Bft)
03.06.2023 20:36 16,3 C 13,9 C 52 % 1019,9 hPa 0,0 l/m 13,3 km/h (3 Bft) N-NW 341 0 min 0,0 UV-I 28 W/m 6,4 C 13,3 C 16,1 km/h (3 Bft)
03.06.2023 20:39 16,2 C 13,9 C 52 % 1019,9 hPa 0,0 l/m 17,1 km/h (3 Bft) N 10 0 min 0,0 UV-I 26 W/m 6,3 C 12,0 C 25,7 km/h (4 Bft)
03.06.2023 20:42 16,1 C 13,9 C 52 % 1019,9 hPa 0,0 l/m 12,8 km/h (3 Bft) N 349 0 min 0,0 UV-I 26 W/m 6,2 C 13,2 C 20,9 km/h (4 Bft)
03.06.2023 20:45 16,0 C 13,3 C 53 % 1020,0 hPa 0,0 l/m 10,2 km/h (2 Bft) N 360 0 min 0,0 UV-I 25 W/m 6,4 C 14,1 C 19,3 km/h (3 Bft)
03.06.2023 20:48 15,7 C 13,3 C 54 % 1020,0 hPa 0,0 l/m 10,5 km/h (2 Bft) N-NW 348 0 min 0,0 UV-I 23 W/m 6,4 C 13,7 C 19,3 km/h (3 Bft)
03.06.2023 20:51 15,7 C 13,3 C 53 % 1019,8 hPa 0,0 l/m 14,3 km/h (3 Bft) N-NW 346 0 min 0,0 UV-I 22 W/m 6,1 C 12,3 C 22,5 km/h (4 Bft)
03.06.2023 20:54 15,7 C 13,3 C 53 % 1019,8 hPa 0,0 l/m 11,9 km/h (2 Bft) N 351 0 min 0,0 UV-I 21 W/m 6,1 C 13,1 C 19,3 km/h (3 Bft)
03.06.2023 20:57 15,5 C 12,8 C 54 % 1020,0 hPa 0,0 l/m 7,9 km/h (2 Bft) N-NO 15 0 min 0,0 UV-I 20 W/m 6,2 C 14,7 C 14,5 km/h (3 Bft)
03.06.2023 21:00 15,3 C 12,2 C 54 % 1020,0 hPa 0,0 l/m 11,1 km/h (2 Bft) N 5 0 min 0,0 UV-I 19 W/m 6,0 C 13,0 C 16,1 km/h (3 Bft)
03.06.2023 21:03 15,2 C 12,2 C 55 % 1020,0 hPa 0,0 l/m 10,2 km/h (2 Bft) N-NO 16 0 min 0,0 UV-I 17 W/m 6,2 C 13,2 C 16,1 km/h (3 Bft)
03.06.2023 21:06 15,1 C 12,2 C 55 % 1020,1 hPa 0,0 l/m 10,1 km/h (2 Bft) N 5 0 min 0,0 UV-I 16 W/m 6,1 C 13,2 C 17,7 km/h (3 Bft)
03.06.2023 21:09 15,1 C 12,2 C 55 % 1020,1 hPa 0,0 l/m 14,2 km/h (3 Bft) N 355 0 min 0,0 UV-I 14 W/m 6,1 C 11,6 C 19,3 km/h (3 Bft)
03.06.2023 21:12 15,1 C 12,2 C 55 % 1020,2 hPa 0,0 l/m 11,9 km/h (2 Bft) N 5 0 min 0,0 UV-I 13 W/m 6,1 C 12,4 C 17,7 km/h (3 Bft)
03.06.2023 21:15 15,0 C 11,7 C 55 % 1020,1 hPa 0,0 l/m 12,2 km/h (2 Bft) N 5 0 min 0,0 UV-I 12 W/m 6,0 C 12,2 C 17,7 km/h (3 Bft)
03.06.2023 21:18 14,9 C 11,7 C 55 % 1020,1 hPa 0,0 l/m 12,6 km/h (3 Bft) N 355 0 min 0,0 UV-I 11 W/m 5,9 C 11,9 C 17,7 km/h (3 Bft)
03.06.2023 21:21 14,8 C 11,7 C 55 % 1020,1 hPa 0,0 l/m 11,7 km/h (2 Bft) N 351 0 min 0,0 UV-I 10 W/m 5,8 C 12,2 C 17,7 km/h (3 Bft)
03.06.2023 21:24 14,8 C 11,7 C 55 % 1020,2 hPa 0,0 l/m 14,5 km/h (3 Bft) N 355 0 min 0,0 UV-I 9 W/m 5,8 C 11,1 C 19,3 km/h (3 Bft)
03.06.2023 21:27 14,7 C 11,7 C 55 % 1020,1 hPa 0,0 l/m 10,5 km/h (2 Bft) N-NO 13 0 min 0,0 UV-I 7 W/m 5,8 C 12,6 C 14,5 km/h (3 Bft)
03.06.2023 21:30 14,5 C 11,7 C 56 % 1020,0 hPa 0,0 l/m 10,7 km/h (2 Bft) N 350 0 min 0,0 UV-I 6 W/m 5,8 C 12,2 C 16,1 km/h (3 Bft)
03.06.2023 21:33 14,3 C 11,1 C 56 % 1020,2 hPa 0,0 l/m 9,9 km/h (2 Bft) N 5 0 min 0,0 UV-I 5 W/m 5,6 C 12,4 C 16,1 km/h (3 Bft)
03.06.2023 21:36 14,2 C 11,1 C 56 % 1020,1 hPa 0,0 l/m 13,2 km/h (3 Bft) N 5 0 min 0,0 UV-I 2 W/m 5,6 C 10,9 C 17,7 km/h (3 Bft)
03.06.2023 21:39 14,2 C 11,1 C 56 % 1020,2 hPa 0,0 l/m 12,4 km/h (3 Bft) N-NW 346 0 min 0,0 UV-I 0 W/m 5,6 C 11,2 C 17,7 km/h (3 Bft)
03.06.2023 21:42 14,1 C 11,1 C 57 % 1020,2 hPa 0,0 l/m 12,5 km/h (3 Bft) N 351 0 min 0,0 UV-I 0 W/m 5,7 C 11,0 C 19,3 km/h (3 Bft)
03.06.2023 21:45 14,1 C 11,1 C 56 % 1020,2 hPa 0,0 l/m 14,1 km/h (3 Bft) N-NW 345 0 min 0,0 UV-I 0 W/m 5,5 C 10,4 C 17,7 km/h (3 Bft)
03.06.2023 21:48 14,1 C 11,1 C 56 % 1020,3 hPa 0,0 l/m 13,7 km/h (3 Bft) N-NW 338 0 min 0,0 UV-I 0 W/m 5,5 C 10,6 C 17,7 km/h (3 Bft)
03.06.2023 21:51 14,0 C 10,6 C 56 % 1020,3 hPa 0,0 l/m 13,0 km/h (3 Bft) N-NW 347 0 min 0,0 UV-I 0 W/m 5,4 C 10,7 C 17,7 km/h (3 Bft)
03.06.2023 21:54 13,8 C 10,6 C 57 % 1020,2 hPa 0,0 l/m 11,8 km/h (2 Bft) N 355 0 min 0,0 UV-I 0 W/m 5,4 C 11,0 C 17,7 km/h (3 Bft)
03.06.2023 21:57 13,7 C 10,6 C 57 % 1020,3 hPa 0,0 l/m 12,3 km/h (3 Bft) N-NW 333 0 min 0,0 UV-I 0 W/m 5,3 C 10,6 C 17,7 km/h (3 Bft)
03.06.2023 22:00 13,7 C 10,6 C 57 % 1020,3 hPa 0,0 l/m 13,8 km/h (3 Bft) N 355 0 min 0,0 UV-I 0 W/m 5,3 C 10,1 C 19,3 km/h (3 Bft)
03.06.2023 22:03 13,7 C 10,6 C 57 % 1020,3 hPa 0,0 l/m 12,6 km/h (3 Bft) N-NW 344 0 min 0,0 UV-I 0 W/m 5,3 C 10,5 C 16,1 km/h (3 Bft)
03.06.2023 22:06 13,6 C 10,6 C 57 % 1020,4 hPa 0,0 l/m 11,8 km/h (2 Bft) N-NW 346 0 min 0,0 UV-I 0 W/m 5,2 C 10,7 C 19,3 km/h (3 Bft)
03.06.2023 22:09 13,5 C 10,6 C 57 % 1020,4 hPa 0,0 l/m 12,7 km/h (3 Bft) N 5 0 min 0,0 UV-I 0 W/m 5,2 C 10,3 C 17,7 km/h (3 Bft)
03.06.2023 22:12 13,5 C 10,6 C 57 % 1020,4 hPa 0,0 l/m 13,3 km/h (3 Bft) N 355 0 min 0,0 UV-I 0 W/m 5,2 C 10,0 C 19,3 km/h (3 Bft)
03.06.2023 22:15 13,4 C 10,6 C 57 % 1020,4 hPa 0,0 l/m 13,6 km/h (3 Bft) N-NW 327 0 min 0,0 UV-I 0 W/m 5,1 C 9,8 C 19,3 km/h (3 Bft)
03.06.2023 22:18 13,4 C 10,6 C 57 % 1020,5 hPa 0,0 l/m 12,1 km/h (2 Bft) N 350 0 min 0,0 UV-I 0 W/m 5,1 C 10,4 C 20,9 km/h (4 Bft)
03.06.2023 22:21 13,3 C 10,6 C 58 % 1020,5 hPa 0,0 l/m 9,7 km/h (2 Bft) N-NW 347 0 min 0,0 UV-I 0 W/m 5,2 C 11,4 C 16,1 km/h (3 Bft)
03.06.2023 22:24 13,2 C 10,0 C 58 % 1020,5 hPa 0,0 l/m 10,3 km/h (2 Bft) N-NW 341 0 min 0,0 UV-I 0 W/m 5,1 C 11,0 C 14,5 km/h (3 Bft)
03.06.2023 22:27 13,2 C 10,0 C 58 % 1020,5 hPa 0,0 l/m 11,1 km/h (2 Bft) N-NO 19 0 min 0,0 UV-I 0 W/m 5,1 C 10,6 C 14,5 km/h (3 Bft)
03.06.2023 22:30 13,0 C 10,0 C 58 % 1020,6 hPa 0,0 l/m 10,1 km/h (2 Bft) N 355 0 min 0,0 UV-I 0 W/m 4,9 C 10,9 C 17,7 km/h (3 Bft)
03.06.2023 22:33 12,9 C 10,0 C 58 % 1020,6 hPa 0,0 l/m 12,6 km/h (3 Bft) N 5 0 min 0,0 UV-I 0 W/m 4,8 C 9,6 C 17,7 km/h (3 Bft)
03.06.2023 22:36 12,9 C 10,0 C 58 % 1020,6 hPa 0,0 l/m 10,8 km/h (2 Bft) N 355 0 min 0,0 UV-I 0 W/m 4,8 C 10,4 C 16,1 km/h (3 Bft)
03.06.2023 22:39 12,9 C 10,0 C 58 % 1020,6 hPa 0,0 l/m 12,2 km/h (2 Bft) N-NW 337 0 min 0,0 UV-I 0 W/m 4,8 C 9,8 C 16,1 km/h (3 Bft)
03.06.2023 22:42 12,9 C 10,0 C 58 % 1020,6 hPa 0,0 l/m 8,6 km/h (2 Bft) N 355 0 min 0,0 UV-I 0 W/m 4,8 C 11,5 C 16,1 km/h (3 Bft)
03.06.2023 22:45 12,7 C 9,4 C 58 % 1020,6 hPa 0,0 l/m 7,9 km/h (2 Bft) N-NW 345 0 min 0,0 UV-I 0 W/m 4,7 C 11,7 C 12,9 km/h (3 Bft)
03.06.2023 22:48 12,7 C 9,4 C 59 % 1020,6 hPa 0,0 l/m 11,2 km/h (2 Bft) N 360 0 min 0,0 UV-I 0 W/m 4,9 C 10,0 C 19,3 km/h (3 Bft)
03.06.2023 22:51 12,7 C 9,4 C 59 % 1020,5 hPa 0,0 l/m 10,8 km/h (2 Bft) N 360 0 min 0,0 UV-I 0 W/m 4,9 C 10,2 C 17,7 km/h (3 Bft)
03.06.2023 22:54 12,4 C 9,4 C 59 % 1020,7 hPa 0,0 l/m 6,1 km/h (2 Bft) N 5 0 min 0,0 UV-I 0 W/m 4,6 C 12,4 C 14,5 km/h (3 Bft)
03.06.2023 22:57 12,3 C 8,9 C 59 % 1020,7 hPa 0,0 l/m 6,1 km/h (2 Bft) N 11 0 min 0,0 UV-I 0 W/m 4,5 C 12,3 C 14,5 km/h (3 Bft)
03.06.2023 23:00 12,2 C 8,3 C 60 % 1020,6 hPa 0,0 l/m 4,9 km/h (1 Bft) N 355 0 min 0,0 UV-I 0 W/m 4,7 C 12,2 C 8,0 km/h (2 Bft)
03.06.2023 23:03 12,1 C 8,3 C 60 % 1020,8 hPa 0,0 l/m 6,3 km/h (2 Bft) N 5 0 min 0,0 UV-I 0 W/m 4,6 C 12,1 C 12,9 km/h (3 Bft)
03.06.2023 23:06 11,9 C 7,8 C 61 % 1020,8 hPa 0,0 l/m 4,8 km/h (1 Bft) N-NO 30 0 min 0,0 UV-I 0 W/m 4,6 C 11,9 C 8,0 km/h (2 Bft)
03.06.2023 23:09 11,7 C 7,8 C 62 % 1020,8 hPa 0,0 l/m 4,2 km/h (1 Bft) N 349 0 min 0,0 UV-I 0 W/m 4,7 C 11,7 C 9,7 km/h (2 Bft)
03.06.2023 23:12 11,6 C 7,2 C 62 % 1020,8 hPa 0,0 l/m 3,8 km/h (1 Bft) NO 35 0 min 0,0 UV-I 0 W/m 4,6 C 11,6 C 8,0 km/h (2 Bft)
03.06.2023 23:15 11,5 C 7,2 C 62 % 1020,8 hPa 0,0 l/m 2,3 km/h (1 Bft) N-NO 19 0 min 0,0 UV-I 0 W/m 4,5 C 11,5 C 4,8 km/h (1 Bft)
03.06.2023 23:18 11,4 C 7,2 C 62 % 1020,9 hPa 0,0 l/m 0,6 km/h (0 Bft) N-NO 19 0 min 0,0 UV-I 0 W/m 4,4 C 11,4 C 3,2 km/h (1 Bft)
03.06.2023 23:21 11,4 C 7,2 C 63 % 1020,8 hPa 0,0 l/m 0,8 km/h (0 Bft) N-NO 19 0 min 0,0 UV-I 0 W/m 4,6 C 11,4 C 3,2 km/h (1 Bft)
03.06.2023 23:24 11,3 C 7,2 C 63 % 1020,8 hPa 0,0 l/m 0,0 km/h (0 Bft) N-NO 19 0 min 0,0 UV-I 0 W/m 4,5 C 11,3 C 0,0 km/h (0 Bft)
03.06.2023 23:27 11,4 C 7,2 C 62 % 1020,9 hPa 0,0 l/m 0,2 km/h (0 Bft) N-NO 19 0 min 0,0 UV-I 0 W/m 4,4 C 11,4 C 1,6 km/h (1 Bft)
03.06.2023 23:30 11,6 C 7,2 C 62 % 1020,9 hPa 0,0 l/m 0,3 km/h (0 Bft) N-NO 19 0 min 0,0 UV-I 0 W/m 4,6 C 11,6 C 1,6 km/h (1 Bft)
03.06.2023 23:33 11,7 C 6,7 C 61 % 1020,8 hPa 0,0 l/m 0,8 km/h (0 Bft) N-NO 19 0 min 0,0 UV-I 0 W/m 4,4 C 11,7 C 3,2 km/h (1 Bft)
03.06.2023 23:36 11,6 C 6,7 C 61 % 1020,9 hPa 0,0 l/m 0,0 km/h (0 Bft) N-NO 19 0 min 0,0 UV-I 0 W/m 4,3 C 11,6 C 1,6 km/h (1 Bft)
03.06.2023 23:39 11,4 C 6,7 C 62 % 1021,0 hPa 0,0 l/m 0,5 km/h (0 Bft) N-NO 19 0 min 0,0 UV-I 0 W/m 4,4 C 11,4 C 3,2 km/h (1 Bft)
03.06.2023 23:42 11,3 C 7,2 C 62 % 1020,9 hPa 0,0 l/m 0,4 km/h (0 Bft) N-NO 19 0 min 0,0 UV-I 0 W/m 4,3 C 11,3 C 1,6 km/h (1 Bft)
03.06.2023 23:45 11,2 C 7,2 C 62 % 1020,9 hPa 0,0 l/m 0,1 km/h (0 Bft) N-NO 19 0 min 0,0 UV-I 0 W/m 4,2 C 11,2 C 1,6 km/h (1 Bft)
03.06.2023 23:48 11,2 C 7,2 C 62 % 1021,0 hPa 0,0 l/m 0,0 km/h (0 Bft) N-NO 19 0 min 0,0 UV-I 0 W/m 4,2 C 11,2 C 0,0 km/h (0 Bft)
03.06.2023 23:51 11,2 C 7,2 C 62 % 1020,9 hPa 0,0 l/m 0,7 km/h (0 Bft) N-NO 19 0 min 0,0 UV-I 0 W/m 4,2 C 11,2 C 3,2 km/h (1 Bft)
03.06.2023 23:54 11,3 C 6,7 C 62 % 1020,9 hPa 0,0 l/m 1,1 km/h (1 Bft) N-NO 19 0 min 0,0 UV-I 0 W/m 4,3 C 11,3 C 3,2 km/h (1 Bft)
03.06.2023 23:57 11,1 C 6,7 C 63 % 1020,9 hPa 0,0 l/m 3,6 km/h (1 Bft) N-NO 19 0 min 0,0 UV-I 0 W/m 4,3 C 11,1 C 6,4 km/h (2 Bft)
_ Min-Zeit 05:36 05:00 18:27 18:27 - 01:45 - - - - - 05:33 05:33 02:09
Minimum _ 4,7 C 2,8 C 45 % 1019,5 hPa - 0,0 km/h (0 Bft) - - - - - 3,3 C 4,8 C 0,0 km/h (0 Bft)
_ Max-Zeit 15:45 14:39 06:12 00:39 00:00 12:18 - - 10:52 13:36 14:30 14:27 14:39 12:06
Maximum _ 20,5 C 29,4 C 92 % 1021,0 hPa 0,0 l/m 22,7 km/h
N-NO (4 Bft)
- - 4 min 6,7 UV-I 1023 W/m 11,3 C 19,3 C 33,8 km/h
N-NO (5 Bft)
Durchschnitt _ 13,5 C 14,5 C 66 % 1020,4 hPa #0,0 l/m 9,7 km/h (2 Bft) N-NO - #12:30 h 3,5 UV-I 476 W/m 6,9 C 11,6 C 15,5 km/h (3 Bft)